Time,TemperatureF,DewpointF,PressureIn,WindDirection,WindDirectionDegrees,WindSpeedMPH,WindSpeedGustMPH,Humidity,HourlyPrecipIn,Conditions,Clouds,dailyrainin,SolarRadiationWatts/m^2,SoftwareType,DateUTC
2013-05-08 00:01:00,55.5,47.0,30.01,ENE,62,1.1,5.5,73,0.00,,,0.00,0.00,VWS V14.01,2013-05-08 05:01:00,
2013-05-08 00:02:00,55.5,47.0,30.02,NE,46,5.5,5.5,73,0.00,,,0.00,0.00,VWS V14.01,2013-05-08 05:02:00,
2013-05-08 00:08:00,55.5,47.0,30.01,NE,48,2.2,3.3,73,0.00,,,0.00,0.00,VWS V14.01,2013-05-08 05:08:00,
2013-05-08 00:09:00,55.4,46.9,30.01,NE,48,4.4,4.4,73,0.00,,,0.00,0.00,VWS V14.01,2013-05-08 05:09:00,
2013-05-08 00:12:00,55.3,46.8,30.01,NE,56,2.2,4.4,73,0.00,,,0.00,0.00,VWS V14.01,2013-05-08 05:12:00,
2013-05-08 00:13:00,55.2,46.7,30.01,ENE,70,1.1,4.4,73,0.00,,,0.00,0.00,VWS V14.01,2013-05-08 05:13:00,
2013-05-08 00:15:00,55.0,46.9,30.01,NE,42,0.0,3.3,74,0.00,,,0.00,0.00,VWS V14.01,2013-05-08 05:15:00,
2013-05-08 00:18:00,54.8,46.7,30.01,NE,42,2.2,5.5,74,0.00,,,0.00,0.00,VWS V14.01,2013-05-08 05:18:00,
2013-05-08 00:19:00,54.8,46.7,30.01,ENE,73,1.1,3.3,74,0.00,,,0.00,0.00,VWS V14.01,2013-05-08 05:19:00,
2013-05-08 00:20:00,54.8,46.7,30.01,ENE,73,2.2,5.5,74,0.00,,,0.00,0.00,VWS V14.01,2013-05-08 05:20:00,
2013-05-08 00:24:00,54.7,46.6,30.01,NE,35,4.4,5.5,74,0.00,,,0.00,0.00,VWS V14.01,2013-05-08 05:24:00,
2013-05-08 00:25:00,54.7,46.6,30.01,East,88,1.1,5.5,74,0.00,,,0.00,0.00,VWS V14.01,2013-05-08 05:25:00,
2013-05-08 00:27:00,54.8,46.7,30.01,ENE,66,2.2,5.5,74,0.00,,,0.00,0.00,VWS V14.01,2013-05-08 05:27:00,
2013-05-08 00:29:00,54.8,46.7,30.01,ENE,70,4.4,5.5,74,0.00,,,0.00,0.00,VWS V14.01,2013-05-08 05:29:00,
2013-05-08 00:31:00,54.8,46.7,30.01,East,80,0.0,4.4,74,0.00,,,0.00,0.00,VWS V14.01,2013-05-08 05:31:00,
2013-05-08 00:32:00,54.8,46.7,30.01,East,89,6.6,6.6,74,0.00,,,0.00,0.00,VWS V14.01,2013-05-08 05:32:00,
2013-05-08 00:33:00,54.8,46.7,30.01,ENE,73,2.2,6.6,74,0.00,,,0.00,0.00,VWS V14.01,2013-05-08 05:33:00,
2013-05-08 00:34:00,54.8,46.7,30.01,ENE,64,2.2,5.5,74,0.00,,,0.00,0.00,VWS V14.01,2013-05-08 05:34:00,
2013-05-08 00:39:00,54.3,46.6,30.01,East,88,5.5,5.5,75,0.00,,,0.00,0.00,VWS V14.01,2013-05-08 05:39:00,
2013-05-08 00:40:00,54.2,46.5,30.01,East,82,3.3,7.7,75,0.00,,,0.00,0.00,VWS V14.01,2013-05-08 05:40:00,
2013-05-08 00:42:00,54.1,46.4,30.01,ENE,60,3.3,6.6,75,0.00,,,0.00,0.00,VWS V14.01,2013-05-08 05:42:00,
2013-05-08 00:45:00,53.9,46.5,30.01,ENE,66,2.2,3.3,76,0.00,,,0.00,0.00,VWS V14.01,2013-05-08 05:45:00,
2013-05-08 00:46:00,53.9,46.5,30.01,NE,43,1.1,6.6,76,0.00,,,0.00,0.00,VWS V14.01,2013-05-08 05:46:00,
2013-05-08 00:49:00,53.9,46.5,30.01,East,79,2.2,3.3,76,0.00,,,0.00,0.00,VWS V14.01,2013-05-08 05:49:00,
2013-05-08 00:50:00,53.8,46.4,30.01,East,79,0.0,5.5,76,0.00,,,0.00,0.00,VWS V14.01,2013-05-08 05:50:00,
2013-05-08 00:52:00,53.7,46.3,30.01,NE,50,1.1,3.3,76,0.00,,,0.00,0.00,VWS V14.01,2013-05-08 05:52:00,
2013-05-08 00:55:00,53.6,46.6,30.01,NE,43,3.3,4.4,77,0.00,,,0.00,0.00,VWS V14.01,2013-05-08 05:55:00,
2013-05-08 00:58:00,53.7,46.7,30.01,ENE,64,2.2,3.3,77,0.00,,,0.00,0.00,VWS V14.01,2013-05-08 05:58:00,
2013-05-08 00:59:00,53.7,46.7,30.01,NNE,33,1.1,4.4,77,0.00,,,0.00,0.00,VWS V14.01,2013-05-08 05:59:00,
2013-05-08 01:01:00,53.7,46.7,30.01,NE,54,2.2,3.3,77,0.00,,,0.00,0.00,VWS V14.01,2013-05-08 06:01:00,
2013-05-08 01:03:00,53.8,46.4,30.01,ENE,62,2.2,4.4,76,0.00,,,0.00,0.00,VWS V14.01,2013-05-08 06:03:00,
2013-05-08 01:05:00,53.7,46.7,30.01,NE,43,2.2,3.3,77,0.00,,,0.00,0.00,VWS V14.01,2013-05-08 06:05:00,
2013-05-08 01:09:00,53.3,46.3,30.01,NE,49,3.3,3.3,77,0.00,,,0.00,0.00,VWS V14.01,2013-05-08 06:09:00,
2013-05-08 01:10:00,53.2,46.2,30.01,NE,35,2.2,5.5,77,0.00,,,0.00,0.00,VWS V14.01,2013-05-08 06:10:00,
2013-05-08 01:11:00,53.1,46.1,30.01,ENE,62,1.1,4.4,77,0.00,,,0.00,0.00,VWS V14.01,2013-05-08 06:11:00,
2013-05-08 01:12:00,53.0,46.3,30.01,NE,55,2.2,4.4,78,0.00,,,0.00,0.00,VWS V14.01,2013-05-08 06:12:00,
2013-05-08 01:15:00,52.7,46.4,30.01,NE,51,2.2,6.6,79,0.00,,,0.00,0.00,VWS V14.01,2013-05-08 06:15:00,
2013-05-08 01:16:00,52.6,46.3,30.01,NE,55,1.1,4.4,79,0.00,,,0.00,0.00,VWS V14.01,2013-05-08 06:16:00,
2013-05-08 01:17:00,52.6,46.3,30.01,NE,54,1.1,2.2,79,0.00,,,0.00,0.00,VWS V14.01,2013-05-08 06:17:00,
2013-05-08 01:18:00,52.6,46.3,30.01,NNE,26,1.1,3.3,79,0.00,,,0.00,0.00,VWS V14.01,2013-05-08 06:18:00,
2013-05-08 01:19:00,52.6,46.3,30.01,ENE,70,4.4,7.7,79,0.00,,,0.00,0.00,VWS V14.01,2013-05-08 06:19:00,
2013-05-08 01:23:00,52.8,46.5,30.01,NE,55,1.1,3.3,79,0.00,,,0.00,0.00,VWS V14.01,2013-05-08 06:23:00,
2013-05-08 01:24:00,52.8,46.5,30.01,ENE,64,2.2,3.3,79,0.00,,,0.00,0.00,VWS V14.01,2013-05-08 06:24:00,
2013-05-08 01:26:00,52.8,46.5,30.01,NNE,27,2.2,2.2,79,0.00,,,0.00,0.00,VWS V14.01,2013-05-08 06:26:00,
2013-05-08 01:27:00,52.9,46.6,30.01,NE,56,1.1,5.5,79,0.00,,,0.00,0.00,VWS V14.01,2013-05-08 06:27:00,
2013-05-08 01:29:00,53.0,46.7,30.00,NE,35,2.2,3.3,79,0.00,,,0.00,0.00,VWS V14.01,2013-05-08 06:29:00,
2013-05-08 01:30:00,53.0,46.7,30.01,NE,42,1.1,3.3,79,0.00,,,0.00,0.00,VWS V14.01,2013-05-08 06:30:00,
2013-05-08 01:32:00,53.0,46.7,30.00,NE,39,0.0,2.2,79,0.00,,,0.00,0.00,VWS V14.01,2013-05-08 06:32:00,
2013-05-08 01:34:00,53.0,46.3,30.00,NE,51,2.2,4.4,78,0.00,,,0.00,0.00,VWS V14.01,2013-05-08 06:34:00,
2013-05-08 01:37:00,52.9,46.6,30.00,NE,45,1.1,5.5,79,0.00,,,0.00,0.00,VWS V14.01,2013-05-08 06:37:00,
2013-05-08 01:40:00,52.9,46.6,30.00,NE,49,1.1,4.4,79,0.00,,,0.00,0.00,VWS V14.01,2013-05-08 06:40:00,
2013-05-08 01:42:00,52.8,46.5,30.00,NE,43,4.4,5.5,79,0.00,,,0.00,0.00,VWS V14.01,2013-05-08 06:42:00,
2013-05-08 01:43:00,52.9,46.6,30.00,NE,52,4.4,5.5,79,0.00,,,0.00,0.00,VWS V14.01,2013-05-08 06:43:00,
2013-05-08 01:45:00,53.0,46.7,30.00,East,82,1.1,4.4,79,0.00,,,0.00,0.00,VWS V14.01,2013-05-08 06:45:00,
2013-05-08 01:47:00,53.0,46.7,30.00,NE,56,2.2,5.5,79,0.00,,,0.00,0.00,VWS V14.01,2013-05-08 06:47:00,
2013-05-08 01:50:00,53.3,46.6,30.00,ENE,63,1.1,5.5,78,0.00,,,0.00,0.00,VWS V14.01,2013-05-08 06:50:00,
2013-05-08 01:51:00,53.3,46.6,30.00,NE,52,4.4,4.4,78,0.00,,,0.00,0.00,VWS V14.01,2013-05-08 06:51:00,
2013-05-08 01:55:00,53.3,46.6,30.00,NE,52,3.3,3.3,78,0.00,,,0.00,0.00,VWS V14.01,2013-05-08 06:55:00,
2013-05-08 01:57:00,53.3,46.6,30.00,NE,41,3.3,6.6,78,0.00,,,0.00,0.00,VWS V14.01,2013-05-08 06:57:00,
2013-05-08 01:58:00,53.3,46.6,30.00,NE,53,2.2,4.4,78,0.00,,,0.00,0.00,VWS V14.01,2013-05-08 06:58:00,
2013-05-08 02:02:00,53.1,46.4,30.00,NE,48,1.1,4.4,78,0.00,,,0.00,0.00,VWS V14.01,2013-05-08 07:02:00,
2013-05-08 02:03:00,53.1,46.4,30.00,NE,48,0.0,2.2,78,0.00,,,0.00,0.00,VWS V14.01,2013-05-08 07:03:00,
2013-05-08 02:04:00,53.1,46.4,30.00,NE,48,2.2,3.3,78,0.00,,,0.00,0.00,VWS V14.01,2013-05-08 07:04:00,
2013-05-08 02:07:00,52.9,46.2,30.00,East,79,3.3,4.4,78,0.00,,,0.00,0.00,VWS V14.01,2013-05-08 07:07:00,
2013-05-08 02:09:00,52.8,46.1,30.00,NE,56,2.2,5.5,78,0.00,,,0.00,0.00,VWS V14.01,2013-05-08 07:09:00,
2013-05-08 02:10:00,52.8,46.1,30.00,NE,41,2.2,3.3,78,0.00,,,0.00,0.00,VWS V14.01,2013-05-08 07:10:00,
2013-05-08 02:13:00,53.3,46.6,30.00,ENE,58,1.1,2.2,78,0.00,,,0.00,0.00,VWS V14.01,2013-05-08 07:13:00,
2013-05-08 02:14:00,53.4,46.4,30.00,NE,42,3.3,3.3,77,0.00,,,0.00,0.00,VWS V14.01,2013-05-08 07:14:00,
2013-05-08 02:15:00,53.5,46.5,30.00,NE,51,3.3,4.4,77,0.00,,,0.00,0.00,VWS V14.01,2013-05-08 07:15:00,
2013-05-08 02:16:00,53.5,46.5,30.00,NE,50,4.4,4.4,77,0.00,,,0.00,0.00,VWS V14.01,2013-05-08 07:16:00,
2013-05-08 02:19:00,53.4,46.4,30.00,ENE,57,0.0,4.4,77,0.00,,,0.00,0.00,VWS V14.01,2013-05-08 07:19:00,
2013-05-08 02:23:00,53.5,46.5,30.00,NE,49,2.2,5.5,77,0.00,,,0.00,0.00,VWS V14.01,2013-05-08 07:23:00,
2013-05-08 02:24:00,53.6,46.2,30.00,NE,41,3.3,3.3,76,0.00,,,0.00,0.00,VWS V14.01,2013-05-08 07:24:00,
2013-05-08 02:26:00,53.8,46.4,30.00,ENE,59,3.3,3.3,76,0.00,,,0.00,0.00,VWS V14.01,2013-05-08 07:26:00,
2013-05-08 02:28:00,54.0,46.6,30.00,ENE,60,2.2,3.3,76,0.00,,,0.00,0.00,VWS V14.01,2013-05-08 07:28:00,
2013-05-08 02:30:00,54.0,46.3,30.00,ENE,64,2.2,3.3,75,0.00,,,0.00,0.00,VWS V14.01,2013-05-08 07:30:00,
2013-05-08 02:31:00,54.0,46.3,30.00,East,81,3.3,5.5,75,0.00,,,0.00,0.00,VWS V14.01,2013-05-08 07:31:00,
2013-05-08 02:34:00,53.8,46.4,30.00,NE,48,0.0,3.3,76,0.00,,,0.00,0.00,VWS V14.01,2013-05-08 07:34:00,
2013-05-08 02:35:00,53.7,46.3,30.00,East,94,3.3,3.3,76,0.00,,,0.00,0.00,VWS V14.01,2013-05-08 07:35:00,
2013-05-08 02:36:00,53.7,46.3,30.00,ENE,74,2.2,4.4,76,0.00,,,0.00,0.00,VWS V14.01,2013-05-08 07:36:00,
2013-05-08 02:37:00,53.8,46.1,30.00,ENE,64,1.1,3.3,75,0.00,,,0.00,0.00,VWS V14.01,2013-05-08 07:37:00,
2013-05-08 02:40:00,53.9,46.2,29.99,ENE,70,2.2,5.5,75,0.00,,,0.00,0.00,VWS V14.01,2013-05-08 07:40:00,
2013-05-08 02:41:00,53.9,46.2,29.99,East,80,1.1,3.3,75,0.00,,,0.00,0.00,VWS V14.01,2013-05-08 07:41:00,
2013-05-08 02:42:00,54.0,46.3,30.00,ENE,63,2.2,3.3,75,0.00,,,0.00,0.00,VWS V14.01,2013-05-08 07:42:00,
2013-05-08 02:43:00,54.0,46.3,29.99,ENE,69,2.2,3.3,75,0.00,,,0.00,0.00,VWS V14.01,2013-05-08 07:43:00,
2013-05-08 02:44:00,53.9,46.2,30.00,East,85,2.2,3.3,75,0.00,,,0.00,0.00,VWS V14.01,2013-05-08 07:44:00,
2013-05-08 02:47:00,53.9,46.2,29.99,NE,41,0.0,3.3,75,0.00,,,0.00,0.00,VWS V14.01,2013-05-08 07:47:00,
2013-05-08 02:48:00,53.9,46.2,30.00,NE,42,2.2,2.2,75,0.00,,,0.00,0.00,VWS V14.01,2013-05-08 07:48:00,
2013-05-08 02:51:00,53.7,46.0,30.00,ENE,62,3.3,5.5,75,0.00,,,0.00,0.00,VWS V14.01,2013-05-08 07:51:00,
2013-05-08 02:53:00,53.8,46.1,30.00,ENE,73,3.3,3.3,75,0.00,,,0.00,0.00,VWS V14.01,2013-05-08 07:53:00,
2013-05-08 02:54:00,53.8,46.1,30.00,East,80,0.0,3.3,75,0.00,,,0.00,0.00,VWS V14.01,2013-05-08 07:54:00,
2013-05-08 02:56:00,53.6,45.9,29.99,East,81,1.1,3.3,75,0.00,,,0.00,0.00,VWS V14.01,2013-05-08 07:56:00,
2013-05-08 02:57:00,53.5,45.8,29.99,East,81,1.1,2.2,75,0.00,,,0.00,0.00,VWS V14.01,2013-05-08 07:57:00,
2013-05-08 02:58:00,53.5,46.1,29.99,East,81,1.1,3.3,76,0.00,,,0.00,0.00,VWS V14.01,2013-05-08 07:58:00,
2013-05-08 03:01:00,53.3,45.9,29.99,East,83,0.0,1.1,76,0.00,,,0.00,0.00,VWS V14.01,2013-05-08 08:01:00,
2013-05-08 03:02:00,53.2,45.8,29.99,East,83,0.0,0.0,76,0.00,,,0.00,0.00,VWS V14.01,2013-05-08 08:02:00,
2013-05-08 03:04:00,53.2,45.8,29.99,East,83,0.0,0.0,76,0.00,,,0.00,0.00,VWS V14.01,2013-05-08 08:04:00,
2013-05-08 03:09:00,53.1,46.1,30.00,East,83,0.0,1.1,77,0.00,,,0.00,0.00,VWS V14.01,2013-05-08 08:09:00,
2013-05-08 03:11:00,53.2,46.2,30.00,East,83,0.0,1.1,77,0.00,,,0.00,0.00,VWS V14.01,2013-05-08 08:11:00,
2013-05-08 03:12:00,53.2,46.2,30.00,East,83,0.0,0.0,77,0.00,,,0.00,0.00,VWS V14.01,2013-05-08 08:12:00,
2013-05-08 03:13:00,53.2,46.2,30.00,East,83,1.1,2.2,77,0.00,,,0.00,0.00,VWS V14.01,2013-05-08 08:13:00,
2013-05-08 03:14:00,53.2,46.2,30.00,East,83,0.0,3.3,77,0.00,,,0.00,0.00,VWS V14.01,2013-05-08 08:14:00,
2013-05-08 03:16:00,53.2,46.2,30.00,ENE,77,0.0,3.3,77,0.00,,,0.00,0.00,VWS V14.01,2013-05-08 08:16:00,
2013-05-08 03:19:00,53.3,46.3,30.00,NNE,25,0.0,2.2,77,0.00,,,0.00,0.00,VWS V14.01,2013-05-08 08:19:00,
2013-05-08 03:21:00,53.3,46.3,30.00,NE,45,1.1,3.3,77,0.00,,,0.00,0.00,VWS V14.01,2013-05-08 08:21:00,
2013-05-08 03:22:00,53.3,46.3,30.00,NE,45,2.2,3.3,77,0.00,,,0.00,0.00,VWS V14.01,2013-05-08 08:22:00,
2013-05-08 03:25:00,53.5,46.1,30.00,NE,45,0.0,3.3,76,0.00,,,0.00,0.00,VWS V14.01,2013-05-08 08:25:00,
2013-05-08 03:26:00,53.5,46.1,30.00,NE,45,1.1,2.2,76,0.00,,,0.00,0.00,VWS V14.01,2013-05-08 08:26:00,
2013-05-08 03:27:00,53.5,46.1,30.00,NE,45,1.1,2.2,76,0.00,,,0.00,0.00,VWS V14.01,2013-05-08 08:27:00,
2013-05-08 03:30:00,53.4,46.4,30.00,NE,45,1.1,2.2,77,0.00,,,0.00,0.00,VWS V14.01,2013-05-08 08:30:00,
2013-05-08 03:34:00,53.3,46.3,30.00,NE,45,1.1,3.3,77,0.00,,,0.00,0.00,VWS V14.01,2013-05-08 08:34:00,
2013-05-08 03:36:00,53.1,46.1,30.00,NE,45,1.1,1.1,77,0.00,,,0.00,0.00,VWS V14.01,2013-05-08 08:36:00,
2013-05-08 03:38:00,52.9,45.9,30.00,NE,45,0.0,0.0,77,0.00,,,0.00,0.00,VWS V14.01,2013-05-08 08:38:00,
2013-05-08 03:39:00,52.9,46.2,30.00,NE,45,0.0,1.1,78,0.00,,,0.00,0.00,VWS V14.01,2013-05-08 08:39:00,
2013-05-08 03:40:00,52.8,46.1,30.00,NE,45,0.0,0.0,78,0.00,,,0.00,0.00,VWS V14.01,2013-05-08 08:40:00,
2013-05-08 03:44:00,52.6,46.0,30.00,NE,45,0.0,1.1,78,0.00,,,0.00,0.00,VWS V14.01,2013-05-08 08:44:00,
2013-05-08 03:45:00,52.5,45.8,30.00,NE,45,0.0,0.0,78,0.00,,,0.00,0.00,VWS V14.01,2013-05-08 08:45:00,
2013-05-08 03:46:00,52.3,45.7,30.00,NE,45,0.0,0.0,78,0.00,,,0.00,0.00,VWS V14.01,2013-05-08 08:46:00,
2013-05-08 03:47:00,52.3,45.7,30.00,NE,45,0.0,0.0,78,0.00,,,0.00,0.00,VWS V14.01,2013-05-08 08:47:00,
2013-05-08 03:49:00,52.2,45.6,30.00,NE,45,0.0,0.0,78,0.00,,,0.00,0.00,VWS V14.01,2013-05-08 08:49:00,
2013-05-08 03:51:00,52.1,46.1,30.00,NE,45,0.0,1.1,80,0.00,,,0.00,0.00,VWS V14.01,2013-05-08 08:51:00,
2013-05-08 03:52:00,52.1,46.1,30.00,NE,45,1.1,2.2,80,0.00,,,0.00,0.00,VWS V14.01,2013-05-08 08:52:00,
2013-05-08 03:54:00,52.1,46.1,30.00,NE,45,1.1,2.2,80,0.00,,,0.00,0.00,VWS V14.01,2013-05-08 08:54:00,
2013-05-08 03:55:00,52.1,46.1,30.00,NE,45,0.0,1.1,80,0.00,,,0.00,0.00,VWS V14.01,2013-05-08 08:55:00,
2013-05-08 03:58:00,52.2,46.2,30.00,NE,45,0.0,0.0,80,0.00,,,0.00,0.00,VWS V14.01,2013-05-08 08:58:00,
2013-05-08 03:59:00,52.2,46.2,30.00,NE,45,0.0,0.0,80,0.00,,,0.00,0.00,VWS V14.01,2013-05-08 08:59:00,
2013-05-08 04:00:00,52.3,46.3,30.00,NE,45,0.0,0.0,80,0.00,,,0.00,0.00,VWS V14.01,2013-05-08 09:00:00,
2013-05-08 04:02:00,52.3,46.3,30.00,NE,45,0.0,0.0,80,0.00,,,0.00,0.00,VWS V14.01,2013-05-08 09:02:00,
2013-05-08 04:05:00,52.3,46.0,30.00,NE,45,0.0,0.0,79,0.00,,,0.00,0.00,VWS V14.01,2013-05-08 09:05:00,
2013-05-08 04:06:00,52.2,45.9,30.00,NE,45,0.0,0.0,79,0.00,,,0.00,0.00,VWS V14.01,2013-05-08 09:06:00,
2013-05-08 04:08:00,52.2,46.2,30.00,NE,45,0.0,1.1,80,0.00,,,0.00,0.00,VWS V14.01,2013-05-08 09:08:00,
2013-05-08 04:09:00,52.1,46.1,30.00,NE,45,0.0,1.1,80,0.00,,,0.00,0.00,VWS V14.01,2013-05-08 09:09:00,
2013-05-08 04:13:00,51.8,45.8,30.00,NE,45,0.0,0.0,80,0.00,,,0.00,0.00,VWS V14.01,2013-05-08 09:13:00,
2013-05-08 04:14:00,51.8,45.8,30.00,NE,45,0.0,0.0,80,0.00,,,0.00,0.00,VWS V14.01,2013-05-08 09:14:00,
2013-05-08 04:15:00,51.7,45.7,30.00,NE,45,0.0,1.1,80,0.00,,,0.00,0.00,VWS V14.01,2013-05-08 09:15:00,
2013-05-08 04:16:00,51.7,45.7,30.00,NE,45,0.0,1.1,80,0.00,,,0.00,0.00,VWS V14.01,2013-05-08 09:16:00,
2013-05-08 04:19:00,51.5,45.5,30.00,NE,44,1.1,2.2,80,0.00,,,0.00,0.00,VWS V14.01,2013-05-08 09:19:00,
2013-05-08 04:21:00,51.5,45.9,30.00,NE,44,1.1,1.1,81,0.00,,,0.00,0.00,VWS V14.01,2013-05-08 09:21:00,
2013-05-08 04:22:00,51.5,45.9,30.00,NE,44,0.0,1.1,81,0.00,,,0.00,0.00,VWS V14.01,2013-05-08 09:22:00,
2013-05-08 04:24:00,51.5,45.9,30.00,NE,44,0.0,0.0,81,0.00,,,0.00,0.00,VWS V14.01,2013-05-08 09:24:00,
2013-05-08 04:26:00,51.6,46.0,30.00,NE,44,1.1,2.2,81,0.00,,,0.00,0.00,VWS V14.01,2013-05-08 09:26:00,
2013-05-08 04:27:00,51.6,46.0,30.00,NE,44,0.0,1.1,81,0.00,,,0.00,0.00,VWS V14.01,2013-05-08 09:27:00,
2013-05-08 04:29:00,51.5,45.5,30.00,NE,44,0.0,0.0,80,0.00,,,0.00,0.00,VWS V14.01,2013-05-08 09:29:00,
2013-05-08 04:33:00,51.4,45.8,30.00,NE,44,1.1,1.1,81,0.00,,,0.00,0.00,VWS V14.01,2013-05-08 09:33:00,
2013-05-08 04:34:00,51.4,45.8,30.00,NE,44,1.1,2.2,81,0.00,,,0.00,0.00,VWS V14.01,2013-05-08 09:34:00,
2013-05-08 04:37:00,51.4,45.5,30.00,NE,44,1.1,2.2,80,0.00,,,0.00,0.00,VWS V14.01,2013-05-08 09:37:00,
2013-05-08 04:39:00,51.4,45.8,30.00,NE,44,3.3,3.3,81,0.00,,,0.00,0.00,VWS V14.01,2013-05-08 09:39:00,
2013-05-08 04:40:00,51.4,45.5,30.00,NE,44,0.0,4.4,80,0.00,,,0.00,0.00,VWS V14.01,2013-05-08 09:40:00,
2013-05-08 04:45:00,51.6,45.6,30.00,NE,44,1.1,3.3,80,0.00,,,0.00,0.00,VWS V14.01,2013-05-08 09:45:00,
2013-05-08 04:46:00,51.7,45.7,30.00,NE,44,1.1,2.2,80,0.00,,,0.00,0.00,VWS V14.01,2013-05-08 09:46:00,
2013-05-08 04:47:00,51.7,45.7,30.01,NE,44,0.0,2.2,80,0.00,,,0.00,0.00,VWS V14.01,2013-05-08 09:47:00,
2013-05-08 04:49:00,51.6,45.6,30.01,NE,44,1.1,1.1,80,0.00,,,0.00,0.00,VWS V14.01,2013-05-08 09:49:00,
2013-05-08 04:50:00,51.6,45.6,30.01,NE,44,1.1,3.3,80,0.00,,,0.00,0.00,VWS V14.01,2013-05-08 09:50:00,
2013-05-08 04:52:00,51.7,45.4,30.01,NE,44,0.0,3.3,79,0.00,,,0.00,0.00,VWS V14.01,2013-05-08 09:52:00,
2013-05-08 04:53:00,51.7,45.4,30.01,NE,44,0.0,0.0,79,0.00,,,0.00,0.00,VWS V14.01,2013-05-08 09:53:00,
2013-05-08 04:55:00,51.7,45.4,30.00,NE,44,1.1,2.2,79,0.00,,,0.00,0.00,VWS V14.01,2013-05-08 09:55:00,
2013-05-08 05:00:00,51.6,45.3,30.01,NE,44,0.0,3.3,79,0.00,,,0.00,0.00,VWS V14.01,2013-05-08 10:00:00,
2013-05-08 05:02:00,51.7,46.1,30.01,NE,44,1.1,1.1,81,0.00,,,0.00,0.00,VWS V14.01,2013-05-08 10:02:00,
2013-05-08 05:04:00,51.8,45.8,30.01,NE,44,0.0,2.2,80,0.00,,,0.00,0.00,VWS V14.01,2013-05-08 10:04:00,
2013-05-08 05:05:00,51.7,46.1,30.01,NE,44,1.1,3.3,81,0.00,,,0.00,0.00,VWS V14.01,2013-05-08 10:05:00,
2013-05-08 05:07:00,51.9,45.9,30.01,NE,44,0.0,1.1,80,0.00,,,0.00,0.00,VWS V14.01,2013-05-08 10:07:00,
2013-05-08 05:08:00,51.9,45.9,30.01,NE,44,1.1,1.1,80,0.00,,,0.00,0.00,VWS V14.01,2013-05-08 10:08:00,
2013-05-08 05:11:00,52.1,46.1,30.01,NE,44,0.0,0.0,80,0.00,,,0.00,0.00,VWS V14.01,2013-05-08 10:11:00,
2013-05-08 05:12:00,52.0,46.0,30.01,NE,44,0.0,0.0,80,0.00,,,0.00,0.00,VWS V14.01,2013-05-08 10:12:00,
2013-05-08 05:13:00,52.0,46.0,30.01,NE,44,0.0,0.0,80,0.00,,,0.00,0.00,VWS V14.01,2013-05-08 10:13:00,
2013-05-08 05:18:00,51.7,45.7,30.01,NE,44,1.1,3.3,80,0.00,,,0.00,0.00,VWS V14.01,2013-05-08 10:18:00,
2013-05-08 05:19:00,51.7,45.4,30.01,NE,44,0.0,1.1,79,0.00,,,0.00,0.00,VWS V14.01,2013-05-08 10:19:00,
2013-05-08 05:20:00,51.7,45.4,30.01,NE,44,0.0,1.1,79,0.00,,,0.00,0.00,VWS V14.01,2013-05-08 10:20:00,
2013-05-08 05:22:00,51.7,45.4,30.01,NE,44,2.2,2.2,79,0.00,,,0.00,0.00,VWS V14.01,2013-05-08 10:22:00,
2013-05-08 05:25:00,51.7,45.4,30.01,NE,44,1.1,2.2,79,0.00,,,0.00,0.00,VWS V14.01,2013-05-08 10:25:00,
2013-05-08 05:27:00,51.7,45.4,30.01,NE,44,3.3,3.3,79,0.00,,,0.00,0.00,VWS V14.01,2013-05-08 10:27:00,
2013-05-08 05:28:00,51.7,45.4,30.01,NE,44,0.0,3.3,79,0.00,,,0.00,0.00,VWS V14.01,2013-05-08 10:28:00,
2013-05-08 05:30:00,51.7,45.4,30.01,NE,44,1.1,1.1,79,0.00,,,0.00,0.00,VWS V14.01,2013-05-08 10:30:00,
2013-05-08 05:32:00,51.8,45.5,30.01,NE,44,1.1,2.2,79,0.00,,,0.00,0.00,VWS V14.01,2013-05-08 10:32:00,
2013-05-08 05:33:00,51.8,45.5,30.01,NE,44,2.2,2.2,79,0.00,,,0.00,0.00,VWS V14.01,2013-05-08 10:33:00,
2013-05-08 05:35:00,51.7,45.4,30.01,NE,44,0.0,1.1,79,0.00,,,0.00,0.00,VWS V14.01,2013-05-08 10:35:00,
2013-05-08 05:39:00,51.7,45.4,30.01,NE,44,2.2,2.2,79,0.00,,,0.00,0.00,VWS V14.01,2013-05-08 10:39:00,
2013-05-08 05:40:00,51.7,45.4,30.02,NE,44,2.2,3.3,79,0.00,,,0.00,0.00,VWS V14.01,2013-05-08 10:40:00,
2013-05-08 05:42:00,51.8,45.5,30.01,NE,44,0.0,1.1,79,0.00,,,0.00,0.00,VWS V14.01,2013-05-08 10:42:00,
2013-05-08 05:44:00,51.8,45.5,30.02,NE,44,1.1,2.2,79,0.00,,,0.00,5.00,VWS V14.01,2013-05-08 10:44:00,
2013-05-08 05:46:00,51.8,45.5,30.02,NE,44,0.0,2.2,79,0.00,,,0.00,5.00,VWS V14.01,2013-05-08 10:46:00,
2013-05-08 05:47:00,51.7,45.4,30.02,NE,45,1.1,4.4,79,0.00,,,0.00,5.00,VWS V14.01,2013-05-08 10:47:00,
2013-05-08 05:49:00,51.7,45.4,30.02,NE,47,0.0,2.2,79,0.00,,,0.00,7.00,VWS V14.01,2013-05-08 10:49:00,
2013-05-08 05:50:00,51.8,45.5,30.02,NE,47,0.0,1.1,79,0.00,,,0.00,7.00,VWS V14.01,2013-05-08 10:50:00,
2013-05-08 05:52:00,51.9,45.6,30.02,NE,47,0.0,2.2,79,0.00,,,0.00,7.00,VWS V14.01,2013-05-08 10:52:00,
2013-05-08 05:55:00,52.0,45.7,30.02,NE,48,1.1,3.3,79,0.00,,,0.00,9.00,VWS V14.01,2013-05-08 10:55:00,
2013-05-08 05:56:00,52.1,45.8,30.02,NE,48,0.0,2.2,79,0.00,,,0.00,11.00,VWS V14.01,2013-05-08 10:56:00,
2013-05-08 05:57:00,52.2,45.9,30.02,NE,48,3.3,3.3,79,0.00,,,0.00,11.00,VWS V14.01,2013-05-08 10:57:00,
2013-05-08 05:58:00,52.3,46.0,30.02,NE,48,1.1,3.3,79,0.00,,,0.00,11.00,VWS V14.01,2013-05-08 10:58:00,
2013-05-08 06:00:00,52.3,46.0,30.02,NE,48,2.2,2.2,79,0.00,,,0.00,12.00,VWS V14.01,2013-05-08 11:00:00,
2013-05-08 06:03:00,52.0,45.7,30.02,NE,48,0.0,1.1,79,0.00,,,0.00,14.00,VWS V14.01,2013-05-08 11:03:00,
2013-05-08 06:04:00,52.0,46.0,30.02,NE,48,0.0,2.2,80,0.00,,,0.00,16.00,VWS V14.01,2013-05-08 11:04:00,
2013-05-08 06:05:00,51.9,45.9,30.02,NE,48,0.0,1.1,80,0.00,,,0.00,16.00,VWS V14.01,2013-05-08 11:05:00,
2013-05-08 06:08:00,51.7,45.7,30.02,NE,48,2.2,2.2,80,0.00,,,0.00,18.00,VWS V14.01,2013-05-08 11:08:00,
2013-05-08 06:10:00,51.9,45.9,30.02,NE,48,1.1,1.1,80,0.00,,,0.00,19.00,VWS V14.01,2013-05-08 11:10:00,
2013-05-08 06:11:00,51.9,45.9,30.02,NE,48,0.0,1.1,80,0.00,,,0.00,21.00,VWS V14.01,2013-05-08 11:11:00,
2013-05-08 06:12:00,51.9,45.9,30.03,NE,48,0.0,0.0,80,0.00,,,0.00,25.00,VWS V14.01,2013-05-08 11:12:00,
2013-05-08 06:16:00,52.1,46.1,30.03,NE,48,1.1,2.2,80,0.00,,,0.00,44.00,VWS V14.01,2013-05-08 11:16:00,
2013-05-08 06:17:00,52.2,46.2,30.03,NE,48,1.1,1.1,80,0.00,,,0.00,46.00,VWS V14.01,2013-05-08 11:17:00,
2013-05-08 06:19:00,52.4,46.1,30.03,NE,48,1.1,1.1,79,0.00,,,0.00,51.00,VWS V14.01,2013-05-08 11:19:00,
2013-05-08 06:21:00,52.6,46.3,30.03,NE,48,1.1,2.2,79,0.00,,,0.00,60.00,VWS V14.01,2013-05-08 11:21:00,
2013-05-08 06:23:00,52.8,46.5,30.03,NE,48,0.0,0.0,79,0.00,,,0.00,65.00,VWS V14.01,2013-05-08 11:23:00,
2013-05-08 06:25:00,52.9,46.9,30.03,NE,48,0.0,3.3,80,0.00,,,0.00,72.00,VWS V14.01,2013-05-08 11:25:00,
2013-05-08 06:26:00,52.9,46.9,30.03,NE,48,1.1,4.4,80,0.00,,,0.00,76.00,VWS V14.01,2013-05-08 11:26:00,
2013-05-08 06:27:00,53.0,46.7,30.03,NE,48,0.0,1.1,79,0.00,,,0.00,77.00,VWS V14.01,2013-05-08 11:27:00,
2013-05-08 06:30:00,53.5,46.8,30.03,NE,48,0.0,0.0,78,0.00,,,0.00,86.00,VWS V14.01,2013-05-08 11:30:00,
2013-05-08 06:31:00,53.6,46.6,30.03,NE,48,0.0,0.0,77,0.00,,,0.00,91.00,VWS V14.01,2013-05-08 11:31:00,
2013-05-08 06:32:00,53.7,47.0,30.03,NE,48,0.0,0.0,78,0.00,,,0.00,95.00,VWS V14.01,2013-05-08 11:32:00,
2013-05-08 06:33:00,53.8,46.8,30.03,NE,48,3.3,3.3,77,0.00,,,0.00,97.00,VWS V14.01,2013-05-08 11:33:00,
2013-05-08 06:37:00,54.2,47.2,30.03,NE,48,3.3,4.4,77,0.00,,,0.00,105.00,VWS V14.01,2013-05-08 11:37:00,
2013-05-08 06:38:00,54.4,47.3,30.03,NE,48,2.2,3.3,77,0.00,,,0.00,104.00,VWS V14.01,2013-05-08 11:38:00,
2013-05-08 06:40:00,54.6,47.5,30.04,NE,48,2.2,2.2,77,0.00,,,0.00,107.00,VWS V14.01,2013-05-08 11:40:00,
2013-05-08 06:41:00,54.8,47.4,30.04,NE,48,3.3,3.3,76,0.00,,,0.00,109.00,VWS V14.01,2013-05-08 11:41:00,
2013-05-08 06:43:00,55.1,47.7,30.04,NE,50,1.1,2.2,76,0.00,,,0.00,116.00,VWS V14.01,2013-05-08 11:43:00,
2013-05-08 06:44:00,55.2,47.8,30.04,NE,50,1.1,3.3,76,0.00,,,0.00,116.00,VWS V14.01,2013-05-08 11:44:00,
2013-05-08 06:47:00,55.5,47.7,30.04,NE,50,3.3,3.3,75,0.00,,,0.00,128.00,VWS V14.01,2013-05-08 11:47:00,
2013-05-08 06:49:00,55.8,47.7,30.04,NE,50,0.0,1.1,74,0.00,,,0.00,137.00,VWS V14.01,2013-05-08 11:49:00,
2013-05-08 06:51:00,56.0,48.2,30.04,NE,50,0.0,0.0,75,0.00,,,0.00,139.00,VWS V14.01,2013-05-08 11:51:00,
2013-05-08 06:52:00,56.1,48.3,30.04,NE,50,2.2,2.2,75,0.00,,,0.00,146.00,VWS V14.01,2013-05-08 11:52:00,
2013-05-08 06:53:00,56.1,48.3,30.04,NE,50,0.0,2.2,75,0.00,,,0.00,148.00,VWS V14.01,2013-05-08 11:53:00,
2013-05-08 06:55:00,56.2,48.0,30.04,NE,50,0.0,2.2,74,0.00,,,0.00,158.00,VWS V14.01,2013-05-08 11:55:00,
2013-05-08 06:56:00,56.3,47.8,30.04,NE,50,1.1,2.2,73,0.00,,,0.00,158.00,VWS V14.01,2013-05-08 11:56:00,
2013-05-08 06:58:00,56.4,48.2,30.04,NE,50,1.1,2.2,74,0.00,,,0.00,156.00,VWS V14.01,2013-05-08 11:58:00,
2013-05-08 06:59:00,56.6,48.1,30.04,NE,50,1.1,3.3,73,0.00,,,0.00,169.00,VWS V14.01,2013-05-08 11:59:00,
2013-05-08 07:02:00,56.9,48.7,30.04,NE,50,2.2,3.3,74,0.00,,,0.00,183.00,VWS V14.01,2013-05-08 12:02:00,
2013-05-08 07:04:00,57.1,48.9,30.04,NE,50,0.0,1.1,74,0.00,,,0.00,188.00,VWS V14.01,2013-05-08 12:04:00,
2013-05-08 07:05:00,57.3,48.7,30.04,NE,50,2.2,2.2,73,0.00,,,0.00,192.00,VWS V14.01,2013-05-08 12:05:00,
2013-05-08 07:07:00,57.7,48.8,30.04,NE,50,0.0,0.0,72,0.00,,,0.00,200.00,VWS V14.01,2013-05-08 12:07:00,
2013-05-08 07:10:00,58.3,49.3,30.04,NE,50,0.0,1.1,72,0.00,,,0.00,207.00,VWS V14.01,2013-05-08 12:10:00,
2013-05-08 07:13:00,58.8,49.0,30.04,NE,50,1.1,1.1,70,0.00,,,0.00,218.00,VWS V14.01,2013-05-08 12:13:00,
2013-05-08 07:14:00,59.0,49.2,30.04,NE,50,0.0,1.1,70,0.00,,,0.00,221.00,VWS V14.01,2013-05-08 12:14:00,
2013-05-08 07:16:00,59.3,49.5,30.04,NE,50,1.1,1.1,70,0.00,,,0.00,227.00,VWS V14.01,2013-05-08 12:16:00,
2013-05-08 07:17:00,59.5,49.7,30.04,NE,50,0.0,2.2,70,0.00,,,0.00,230.00,VWS V14.01,2013-05-08 12:17:00,
2013-05-08 07:19:00,59.9,50.1,30.04,NE,50,0.0,0.0,70,0.00,,,0.00,237.00,VWS V14.01,2013-05-08 12:19:00,
2013-05-08 07:22:00,60.4,49.8,30.04,NE,50,0.0,2.2,68,0.00,,,0.00,246.00,VWS V14.01,2013-05-08 12:22:00,
2013-05-08 07:23:00,60.5,49.9,30.04,NE,50,0.0,0.0,68,0.00,,,0.00,251.00,VWS V14.01,2013-05-08 12:23:00,
2013-05-08 07:25:00,60.7,50.1,30.04,NE,50,0.0,2.2,68,0.00,,,0.00,257.00,VWS V14.01,2013-05-08 12:25:00,
2013-05-08 07:27:00,61.1,50.5,30.05,NE,50,0.0,0.0,68,0.00,,,0.00,262.00,VWS V14.01,2013-05-08 12:27:00,
2013-05-08 07:28:00,61.2,50.2,30.04,NE,50,0.0,0.0,67,0.00,,,0.00,265.00,VWS V14.01,2013-05-08 12:28:00,
2013-05-08 07:29:00,61.3,50.3,30.04,NE,50,0.0,0.0,67,0.00,,,0.00,271.00,VWS V14.01,2013-05-08 12:29:00,
2013-05-08 07:33:00,62.0,50.9,30.04,NE,50,0.0,0.0,67,0.00,,,0.00,281.00,VWS V14.01,2013-05-08 12:33:00,
2013-05-08 07:35:00,62.0,50.9,30.04,NE,50,0.0,2.2,67,0.00,,,0.00,290.00,VWS V14.01,2013-05-08 12:35:00,
2013-05-08 07:36:00,62.1,51.4,30.04,NE,50,1.1,2.2,68,0.00,,,0.00,292.00,VWS V14.01,2013-05-08 12:36:00,
2013-05-08 07:37:00,62.2,51.1,30.04,NE,50,0.0,1.1,67,0.00,,,0.00,295.00,VWS V14.01,2013-05-08 12:37:00,
2013-05-08 07:39:00,62.3,50.8,30.04,NE,50,0.0,0.0,66,0.00,,,0.00,301.00,VWS V14.01,2013-05-08 12:39:00,
2013-05-08 07:40:00,62.5,50.6,30.05,NE,50,0.0,0.0,65,0.00,,,0.00,302.00,VWS V14.01,2013-05-08 12:40:00,
2013-05-08 07:42:00,62.7,50.4,30.04,NE,50,2.2,2.2,64,0.00,,,0.00,311.00,VWS V14.01,2013-05-08 12:42:00,
2013-05-08 07:44:00,62.7,50.8,30.05,NE,50,0.0,1.1,65,0.00,,,0.00,318.00,VWS V14.01,2013-05-08 12:44:00,
2013-05-08 07:47:00,63.0,51.5,30.04,NE,56,1.1,3.3,66,0.00,,,0.00,329.00,VWS V14.01,2013-05-08 12:47:00,
2013-05-08 07:48:00,63.3,52.2,30.04,ENE,58,3.3,3.3,67,0.00,,,0.00,332.00,VWS V14.01,2013-05-08 12:48:00,
2013-05-08 07:49:00,63.4,51.0,30.04,ESE,107,2.2,4.4,64,0.00,,,0.00,336.00,VWS V14.01,2013-05-08 12:49:00,
2013-05-08 07:51:00,63.6,51.2,30.04,ESE,110,1.1,2.2,64,0.00,,,0.00,341.00,VWS V14.01,2013-05-08 12:51:00,
2013-05-08 07:54:00,63.5,51.1,30.05,ESE,110,0.0,1.1,64,0.00,,,0.00,352.00,VWS V14.01,2013-05-08 12:54:00,
2013-05-08 07:57:00,63.9,51.5,30.05,SE,129,0.0,1.1,64,0.00,,,0.00,360.00,VWS V14.01,2013-05-08 12:57:00,
2013-05-08 07:58:00,64.0,51.6,30.05,SE,129,1.1,2.2,64,0.00,,,0.00,364.00,VWS V14.01,2013-05-08 12:58:00,
2013-05-08 08:00:00,64.1,52.5,30.05,SE,129,1.1,2.2,66,0.00,,,0.00,371.00,VWS V14.01,2013-05-08 13:00:00,
2013-05-08 08:01:00,64.3,52.3,30.05,SE,129,3.3,3.3,65,0.00,,,0.00,374.00,VWS V14.01,2013-05-08 13:01:00,
2013-05-08 08:03:00,64.5,53.3,30.04,SE,129,2.2,3.3,67,0.00,,,0.00,380.00,VWS V14.01,2013-05-08 13:03:00,
2013-05-08 08:04:00,64.6,52.2,30.05,SE,129,2.2,3.3,64,0.00,,,0.00,383.00,VWS V14.01,2013-05-08 13:04:00,
2013-05-08 08:07:00,64.6,52.2,30.04,SE,129,0.0,1.1,64,0.00,,,0.00,394.00,VWS V14.01,2013-05-08 13:07:00,
2013-05-08 08:08:00,64.7,51.8,30.04,SE,129,1.1,1.1,63,0.00,,,0.00,397.00,VWS V14.01,2013-05-08 13:08:00,
2013-05-08 08:11:00,65.1,53.1,30.05,SE,129,0.0,1.1,65,0.00,,,0.00,408.00,VWS V14.01,2013-05-08 13:11:00,
2013-05-08 08:12:00,65.2,52.7,30.05,SE,129,0.0,1.1,64,0.00,,,0.00,411.00,VWS V14.01,2013-05-08 13:12:00,
2013-05-08 08:16:00,65.5,53.8,30.05,SE,129,2.2,2.2,66,0.00,,,0.00,424.00,VWS V14.01,2013-05-08 13:16:00,
2013-05-08 08:17:00,65.7,54.5,30.05,SE,129,2.2,4.4,67,0.00,,,0.00,429.00,VWS V14.01,2013-05-08 13:17:00,
2013-05-08 08:21:00,66.0,53.9,30.05,SE,129,1.1,1.1,65,0.00,,,0.00,439.00,VWS V14.01,2013-05-08 13:21:00,
2013-05-08 08:22:00,66.3,55.4,30.05,SE,129,0.0,1.1,68,0.00,,,0.00,443.00,VWS V14.01,2013-05-08 13:22:00,
2013-05-08 08:23:00,66.4,55.5,30.05,SE,129,0.0,0.0,68,0.00,,,0.00,448.00,VWS V14.01,2013-05-08 13:23:00,
2013-05-08 08:27:00,67.4,54.4,30.05,SE,129,0.0,2.2,63,0.00,,,0.00,457.00,VWS V14.01,2013-05-08 13:27:00,
2013-05-08 08:29:00,67.5,54.5,30.05,SE,129,1.1,2.2,63,0.00,,,0.00,464.00,VWS V14.01,2013-05-08 13:29:00,
2013-05-08 08:30:00,67.5,55.3,30.05,SE,129,1.1,1.1,65,0.00,,,0.00,468.00,VWS V14.01,2013-05-08 13:30:00,
2013-05-08 08:33:00,67.6,54.6,30.05,SE,129,1.1,1.1,63,0.00,,,0.00,475.00,VWS V14.01,2013-05-08 13:33:00,
2013-05-08 08:34:00,67.6,55.4,30.05,SE,129,0.0,3.3,65,0.00,,,0.00,482.00,VWS V14.01,2013-05-08 13:34:00,
2013-05-08 08:35:00,67.5,54.9,30.05,SE,129,0.0,1.1,64,0.00,,,0.00,482.00,VWS V14.01,2013-05-08 13:35:00,
2013-05-08 08:36:00,67.5,54.9,30.05,SE,129,0.0,0.0,64,0.00,,,0.00,487.00,VWS V14.01,2013-05-08 13:36:00,
2013-05-08 08:38:00,67.5,55.3,30.05,SW,221,4.4,4.4,65,0.00,,,0.00,492.00,VWS V14.01,2013-05-08 13:38:00,
2013-05-08 08:42:00,67.7,54.7,30.05,WSW,239,0.0,0.0,63,0.00,,,0.00,506.00,VWS V14.01,2013-05-08 13:42:00,
2013-05-08 08:43:00,67.6,54.1,30.05,WSW,239,2.2,3.3,62,0.00,,,0.00,508.00,VWS V14.01,2013-05-08 13:43:00,
2013-05-08 08:46:00,67.7,55.5,30.05,WSW,239,0.0,2.2,65,0.00,,,0.00,520.00,VWS V14.01,2013-05-08 13:46:00,
2013-05-08 08:47:00,67.7,54.2,30.05,WSW,239,2.2,2.2,62,0.00,,,0.00,522.00,VWS V14.01,2013-05-08 13:47:00,
2013-05-08 08:48:00,67.8,55.6,30.05,WSW,239,2.2,2.2,65,0.00,,,0.00,524.00,VWS V14.01,2013-05-08 13:48:00,
2013-05-08 08:51:00,68.2,55.1,30.05,WSW,241,2.2,4.4,63,0.00,,,0.00,533.00,VWS V14.01,2013-05-08 13:51:00,
2013-05-08 08:52:00,68.3,55.7,30.05,WSW,238,0.0,2.2,64,0.00,,,0.00,536.00,VWS V14.01,2013-05-08 13:52:00,
2013-05-08 08:53:00,68.4,55.8,30.05,WSW,238,1.1,2.2,64,0.00,,,0.00,540.00,VWS V14.01,2013-05-08 13:53:00,
2013-05-08 08:55:00,68.6,55.5,30.05,WSW,238,0.0,0.0,63,0.00,,,0.00,545.00,VWS V14.01,2013-05-08 13:55:00,
2013-05-08 08:57:00,68.5,55.4,30.05,WSW,241,3.3,3.3,63,0.00,,,0.00,550.00,VWS V14.01,2013-05-08 13:57:00,
2013-05-08 08:58:00,68.5,55.4,30.05,WSW,241,0.0,3.3,63,0.00,,,0.00,555.00,VWS V14.01,2013-05-08 13:58:00,
2013-05-08 09:01:00,68.6,55.5,30.05,SW,222,3.3,4.4,63,0.00,,,0.00,563.00,VWS V14.01,2013-05-08 14:01:00,
2013-05-08 09:03:00,69.0,55.9,30.05,SW,217,1.1,3.3,63,0.00,,,0.00,570.00,VWS V14.01,2013-05-08 14:03:00,
2013-05-08 09:05:00,69.4,57.1,30.05,SW,217,0.0,1.1,65,0.00,,,0.00,577.00,VWS V14.01,2013-05-08 14:05:00,
2013-05-08 09:06:00,69.5,55.9,30.04,SW,217,0.0,0.0,62,0.00,,,0.00,580.00,VWS V14.01,2013-05-08 14:06:00,
2013-05-08 09:08:00,69.6,55.1,30.04,SW,217,1.1,1.1,60,0.00,,,0.00,584.00,VWS V14.01,2013-05-08 14:08:00,
2013-05-08 09:09:00,69.5,55.5,30.04,SW,217,1.1,2.2,61,0.00,,,0.00,589.00,VWS V14.01,2013-05-08 14:09:00,
2013-05-08 09:13:00,70.4,55.9,30.04,SW,217,0.0,2.2,60,0.00,,,0.00,601.00,VWS V14.01,2013-05-08 14:13:00,
2013-05-08 09:14:00,70.6,57.4,30.04,SW,217,3.3,3.3,63,0.00,,,0.00,603.00,VWS V14.01,2013-05-08 14:14:00,
2013-05-08 09:15:00,70.7,56.6,30.04,SW,217,3.3,3.3,61,0.00,,,0.00,606.00,VWS V14.01,2013-05-08 14:15:00,
2013-05-08 09:16:00,70.8,55.8,30.04,SW,214,2.2,3.3,59,0.00,,,0.00,608.00,VWS V14.01,2013-05-08 14:16:00,
2013-05-08 09:20:00,71.0,56.0,30.04,SSW,199,0.0,0.0,59,0.00,,,0.00,619.00,VWS V14.01,2013-05-08 14:20:00,
2013-05-08 09:22:00,70.9,55.9,30.05,SSW,199,1.1,3.3,59,0.00,,,0.00,626.00,VWS V14.01,2013-05-08 14:22:00,
2013-05-08 09:25:00,71.4,55.9,30.04,SSW,199,0.0,0.0,58,0.00,,,0.00,633.00,VWS V14.01,2013-05-08 14:25:00,
2013-05-08 09:27:00,71.8,56.7,30.05,SSW,199,0.0,0.0,59,0.00,,,0.00,640.00,VWS V14.01,2013-05-08 14:27:00,
2013-05-08 09:30:00,71.6,55.6,30.05,SSW,199,0.0,1.1,57,0.00,,,0.00,647.00,VWS V14.01,2013-05-08 14:30:00,
2013-05-08 09:31:00,71.6,56.1,30.04,SSW,199,0.0,0.0,58,0.00,,,0.00,649.00,VWS V14.01,2013-05-08 14:31:00,
2013-05-08 09:34:00,72.0,56.4,30.04,SSW,199,0.0,0.0,58,0.00,,,0.00,654.00,VWS V14.01,2013-05-08 14:34:00,
2013-05-08 09:35:00,72.1,55.6,30.04,SSW,199,1.1,2.2,56,0.00,,,0.00,657.00,VWS V14.01,2013-05-08 14:35:00,
2013-05-08 09:36:00,72.2,56.6,30.04,SSW,199,3.3,3.3,58,0.00,,,0.00,663.00,VWS V14.01,2013-05-08 14:36:00,
2013-05-08 09:39:00,72.7,57.6,30.04,SSW,195,0.0,0.0,59,0.00,,,0.00,673.00,VWS V14.01,2013-05-08 14:39:00,
2013-05-08 09:40:00,72.8,57.2,30.04,SSW,195,0.0,1.1,58,0.00,,,0.00,673.00,VWS V14.01,2013-05-08 14:40:00,
2013-05-08 09:42:00,73.2,57.1,30.04,SSW,195,1.1,2.2,57,0.00,,,0.00,680.00,VWS V14.01,2013-05-08 14:42:00,
2013-05-08 09:43:00,73.2,56.6,30.04,SSW,195,0.0,1.1,56,0.00,,,0.00,682.00,VWS V14.01,2013-05-08 14:43:00,
2013-05-08 09:45:00,73.2,56.1,30.04,SSW,195,0.0,2.2,55,0.00,,,0.00,689.00,VWS V14.01,2013-05-08 14:45:00,
2013-05-08 09:46:00,73.1,56.5,30.04,NW,305,4.4,5.5,56,0.00,,,0.00,691.00,VWS V14.01,2013-05-08 14:46:00,
2013-05-08 09:47:00,73.1,55.5,30.04,NW,312,3.3,5.5,54,0.00,,,0.00,694.00,VWS V14.01,2013-05-08 14:47:00,
2013-05-08 09:49:00,72.9,55.8,30.04,NW,326,2.2,4.4,55,0.00,,,0.00,694.00,VWS V14.01,2013-05-08 14:49:00,
2013-05-08 09:52:00,72.6,55.0,30.04,NNW,334,0.0,0.0,54,0.00,,,0.00,700.00,VWS V14.01,2013-05-08 14:52:00,
2013-05-08 09:53:00,72.6,55.0,30.04,NNW,334,1.1,2.2,54,0.00,,,0.00,705.00,VWS V14.01,2013-05-08 14:53:00,
2013-05-08 09:55:00,72.7,55.6,30.04,NNW,334,2.2,2.2,55,0.00,,,0.00,708.00,VWS V14.01,2013-05-08 14:55:00,
2013-05-08 09:58:00,73.1,55.5,30.04,NW,324,2.2,4.4,54,0.00,,,0.00,717.00,VWS V14.01,2013-05-08 14:58:00,
2013-05-08 09:59:00,73.1,55.0,30.04,NW,324,2.2,3.3,53,0.00,,,0.00,721.00,VWS V14.01,2013-05-08 14:59:00,
2013-05-08 10:00:00,73.1,54.5,30.04,NW,324,1.1,3.3,52,0.00,,,0.00,724.00,VWS V14.01,2013-05-08 15:00:00,
2013-05-08 10:01:00,73.1,54.5,30.04,NW,324,2.2,2.2,52,0.00,,,0.00,724.00,VWS V14.01,2013-05-08 15:01:00,
2013-05-08 10:05:00,73.4,55.8,30.04,NW,324,0.0,1.1,54,0.00,,,0.00,735.00,VWS V14.01,2013-05-08 15:05:00,
2013-05-08 10:06:00,73.5,55.9,30.04,NNW,328,3.3,3.3,54,0.00,,,0.00,738.00,VWS V14.01,2013-05-08 15:06:00,
2013-05-08 10:07:00,73.5,55.3,30.04,NNW,328,1.1,3.3,53,0.00,,,0.00,738.00,VWS V14.01,2013-05-08 15:07:00,
2013-05-08 10:09:00,73.3,56.2,30.04,NNW,328,2.2,2.2,55,0.00,,,0.00,749.00,VWS V14.01,2013-05-08 15:09:00,
2013-05-08 10:11:00,73.1,55.0,30.04,WNW,291,2.2,2.2,53,0.00,,,0.00,752.00,VWS V14.01,2013-05-08 15:11:00,
2013-05-08 10:12:00,73.1,55.0,30.04,West,271,0.0,2.2,53,0.00,,,0.00,754.00,VWS V14.01,2013-05-08 15:12:00,
2013-05-08 10:13:00,73.2,56.1,30.04,West,271,0.0,0.0,55,0.00,,,0.00,756.00,VWS V14.01,2013-05-08 15:13:00,
2013-05-08 10:14:00,73.4,56.3,30.04,West,272,0.0,1.1,55,0.00,,,0.00,756.00,VWS V14.01,2013-05-08 15:14:00,
2013-05-08 10:18:00,74.7,55.9,30.04,NNE,23,3.3,3.3,52,0.00,,,0.00,761.00,VWS V14.01,2013-05-08 15:18:00,
2013-05-08 10:20:00,75.2,54.8,30.04,NE,54,1.1,3.3,49,0.00,,,0.00,772.00,VWS V14.01,2013-05-08 15:20:00,
2013-05-08 10:22:00,75.7,57.9,30.04,East,88,2.2,2.2,54,0.00,,,0.00,779.00,VWS V14.01,2013-05-08 15:22:00,
2013-05-08 10:25:00,75.9,56.5,30.04,WNW,295,2.2,2.2,51,0.00,,,0.00,786.00,VWS V14.01,2013-05-08 15:25:00,
2013-05-08 10:26:00,76.0,54.9,30.04,NNW,337,5.5,5.5,48,0.00,,,0.00,788.00,VWS V14.01,2013-05-08 15:26:00,
2013-05-08 10:27:00,76.1,55.6,30.04,NNW,341,5.5,5.5,49,0.00,,,0.00,788.00,VWS V14.01,2013-05-08 15:27:00,
2013-05-08 10:32:00,76.5,58.1,30.04,WSW,250,2.2,2.2,53,0.00,,,0.00,807.00,VWS V14.01,2013-05-08 15:32:00,
2013-05-08 10:33:00,76.7,56.7,30.04,SE,145,2.2,2.2,50,0.00,,,0.00,810.00,VWS V14.01,2013-05-08 15:33:00,
2013-05-08 10:34:00,77.0,55.2,30.04,ESE,120,1.1,4.4,47,0.00,,,0.00,814.00,VWS V14.01,2013-05-08 15:34:00,
2013-05-08 10:37:00,76.4,56.4,30.04,ESE,112,8.8,8.8,50,0.00,,,0.00,824.00,VWS V14.01,2013-05-08 15:37:00,
2013-05-08 10:38:00,76.4,56.4,30.04,ENE,72,4.4,8.8,50,0.00,,,0.00,824.00,VWS V14.01,2013-05-08 15:38:00,
2013-05-08 10:40:00,76.4,57.0,30.04,NNE,12,5.5,5.5,51,0.00,,,0.00,828.00,VWS V14.01,2013-05-08 15:40:00,
2013-05-08 10:41:00,76.2,56.2,30.04,NNE,12,0.0,5.5,50,0.00,,,0.00,838.00,VWS V14.01,2013-05-08 15:41:00,
2013-05-08 10:44:00,76.5,57.6,30.04,NE,51,2.2,5.5,52,0.00,,,0.00,867.00,VWS V14.01,2013-05-08 15:44:00,
2013-05-08 10:45:00,76.3,53.4,30.04,NE,51,0.0,3.3,45,0.00,,,0.00,882.00,VWS V14.01,2013-05-08 15:45:00,
2013-05-08 10:46:00,76.4,55.3,30.04,NE,51,2.2,4.4,48,0.00,,,0.00,884.00,VWS V14.01,2013-05-08 15:46:00,
2013-05-08 10:48:00,76.2,53.9,30.04,NE,51,0.0,0.0,46,0.00,,,0.00,863.00,VWS V14.01,2013-05-08 15:48:00,
2013-05-08 10:50:00,76.2,55.7,30.04,East,88,2.2,5.5,49,0.00,,,0.00,853.00,VWS V14.01,2013-05-08 15:50:00,
2013-05-08 10:51:00,76.1,54.4,30.03,East,84,2.2,3.3,47,0.00,,,0.00,861.00,VWS V14.01,2013-05-08 15:51:00,
2013-05-08 10:54:00,76.4,55.3,30.03,ESE,109,0.0,2.2,48,0.00,,,0.00,891.00,VWS V14.01,2013-05-08 15:54:00,
2013-05-08 10:55:00,76.5,55.4,30.03,ESE,123,2.2,3.3,48,0.00,,,0.00,870.00,VWS V14.01,2013-05-08 15:55:00,
2013-05-08 10:56:00,76.7,55.5,30.03,ESE,123,2.2,2.2,48,0.00,,,0.00,886.00,VWS V14.01,2013-05-08 15:56:00,
2013-05-08 10:58:00,76.9,54.6,30.03,ESE,120,7.7,7.7,46,0.00,,,0.00,886.00,VWS V14.01,2013-05-08 15:58:00,
2013-05-08 11:00:00,76.9,55.2,30.03,South,170,3.3,3.3,47,0.00,,,0.00,911.00,VWS V14.01,2013-05-08 16:00:00,
2013-05-08 11:01:00,77.1,57.6,30.03,South,170,0.0,3.3,51,0.00,,,0.00,907.00,VWS V14.01,2013-05-08 16:01:00,
2013-05-08 11:02:00,76.9,54.0,30.03,South,170,0.0,3.3,45,0.00,,,0.00,905.00,VWS V14.01,2013-05-08 16:02:00,
2013-05-08 11:05:00,77.4,56.2,30.03,SSE,167,6.6,6.6,48,0.00,,,0.00,905.00,VWS V14.01,2013-05-08 16:05:00,
2013-05-08 11:06:00,77.6,56.4,30.03,SSW,196,3.3,6.6,48,0.00,,,0.00,900.00,VWS V14.01,2013-05-08 16:06:00,
2013-05-08 11:08:00,77.4,55.0,30.03,SSW,195,2.2,2.2,46,0.00,,,0.00,907.00,VWS V14.01,2013-05-08 16:08:00,
2013-05-08 11:10:00,77.1,55.3,30.03,NNE,20,2.2,4.4,47,0.00,,,0.00,900.00,VWS V14.01,2013-05-08 16:10:00,
2013-05-08 11:11:00,77.2,56.0,30.03,North,9,2.2,4.4,48,0.00,,,0.00,900.00,VWS V14.01,2013-05-08 16:11:00,
2013-05-08 11:13:00,77.0,54.1,30.03,NW,305,5.5,5.5,45,0.00,,,0.00,895.00,VWS V14.01,2013-05-08 16:13:00,
2013-05-08 11:14:00,77.2,56.6,30.03,WNW,303,3.3,5.5,49,0.00,,,0.00,895.00,VWS V14.01,2013-05-08 16:14:00,
2013-05-08 11:15:00,77.0,56.4,30.03,NNW,347,4.4,4.4,49,0.00,,,0.00,130.00,VWS V14.01,2013-05-08 16:15:00,
2013-05-08 11:18:00,76.0,54.3,30.03,NE,42,2.2,4.4,47,0.00,,,0.00,132.00,VWS V14.01,2013-05-08 16:18:00,
2013-05-08 11:20:00,75.2,54.2,30.03,NNE,28,2.2,4.4,48,0.00,,,0.00,132.00,VWS V14.01,2013-05-08 16:20:00,
2013-05-08 11:23:00,74.8,54.9,30.03,NNE,27,1.1,4.4,50,0.00,,,0.00,144.00,VWS V14.01,2013-05-08 16:23:00,
2013-05-08 11:24:00,74.9,53.9,30.03,NE,41,4.4,4.4,48,0.00,,,0.00,144.00,VWS V14.01,2013-05-08 16:24:00,
2013-05-08 11:25:00,75.1,55.2,30.03,NE,46,3.3,5.5,50,0.00,,,0.00,144.00,VWS V14.01,2013-05-08 16:25:00,
2013-05-08 11:28:00,75.7,54.1,30.03,NE,50,0.0,1.1,47,0.00,,,0.00,144.00,VWS V14.01,2013-05-08 16:28:00,
2013-05-08 11:30:00,75.7,55.2,30.03,ENE,59,2.2,5.5,49,0.00,,,0.00,970.00,VWS V14.01,2013-05-08 16:30:00,
2013-05-08 11:31:00,76.0,56.0,30.03,NE,54,4.4,4.4,50,0.00,,,0.00,965.00,VWS V14.01,2013-05-08 16:31:00,
2013-05-08 11:33:00,76.4,53.5,30.03,NE,49,0.0,3.3,45,0.00,,,0.00,963.00,VWS V14.01,2013-05-08 16:33:00,
2013-05-08 11:36:00,76.8,56.2,30.03,ESE,104,3.3,4.4,49,0.00,,,0.00,965.00,VWS V14.01,2013-05-08 16:36:00,
2013-05-08 11:37:00,77.2,55.4,30.03,ESE,103,2.2,3.3,47,0.00,,,0.00,969.00,VWS V14.01,2013-05-08 16:37:00,
2013-05-08 11:39:00,77.1,54.2,30.03,ESE,104,3.3,3.3,45,0.00,,,0.00,979.00,VWS V14.01,2013-05-08 16:39:00,
2013-05-08 11:42:00,77.0,55.8,30.03,ESE,110,2.2,5.5,48,0.00,,,0.00,983.00,VWS V14.01,2013-05-08 16:42:00,
2013-05-08 11:44:00,77.8,57.7,30.03,ESE,110,1.1,3.3,50,0.00,,,0.00,988.00,VWS V14.01,2013-05-08 16:44:00,
2013-05-08 11:45:00,77.8,55.4,30.03,ESE,110,0.0,1.1,46,0.00,,,0.00,995.00,VWS V14.01,2013-05-08 16:45:00,
2013-05-08 11:48:00,77.6,54.0,30.03,NNE,23,4.4,4.4,44,0.00,,,0.00,1027.00,VWS V14.01,2013-05-08 16:48:00,
2013-05-08 11:49:00,78.0,59.5,30.02,NNE,20,2.2,4.4,53,0.00,,,0.00,1023.00,VWS V14.01,2013-05-08 16:49:00,
2013-05-08 11:51:00,78.5,57.8,30.02,NNE,16,3.3,4.4,49,0.00,,,0.00,1005.00,VWS V14.01,2013-05-08 16:51:00,
2013-05-08 11:55:00,78.4,54.7,30.02,NNE,14,1.1,2.2,44,0.00,,,0.00,1002.00,VWS V14.01,2013-05-08 16:55:00,
2013-05-08 11:56:00,78.6,54.9,30.02,NNE,14,1.1,3.3,44,0.00,,,0.00,1009.00,VWS V14.01,2013-05-08 16:56:00,
2013-05-08 11:57:00,78.7,54.3,30.02,NNE,14,1.1,1.1,43,0.00,,,0.00,1016.00,VWS V14.01,2013-05-08 16:57:00,
2013-05-08 11:58:00,78.7,54.3,30.02,ENE,57,1.1,3.3,43,0.00,,,0.00,1018.00,VWS V14.01,2013-05-08 16:58:00,
2013-05-08 12:02:00,77.9,53.6,30.02,ESE,116,3.3,3.3,43,0.00,,,0.00,1030.00,VWS V14.01,2013-05-08 17:02:00,
2013-05-08 12:03:00,77.8,56.0,30.02,East,93,2.2,3.3,47,0.00,,,0.00,1042.00,VWS V14.01,2013-05-08 17:03:00,
2013-05-08 12:04:00,78.0,56.7,30.02,East,93,1.1,2.2,48,0.00,,,0.00,1051.00,VWS V14.01,2013-05-08 17:04:00,
2013-05-08 12:09:00,79.4,58.0,30.02,NNW,337,5.5,6.6,48,0.00,,,0.00,1027.00,VWS V14.01,2013-05-08 17:09:00,
2013-05-08 12:10:00,80.1,58.1,30.02,NNW,345,4.4,7.7,47,0.00,,,0.00,230.00,VWS V14.01,2013-05-08 17:10:00,
2013-05-08 12:12:00,79.8,57.2,30.02,NNW,347,2.2,4.4,46,0.00,,,0.00,229.00,VWS V14.01,2013-05-08 17:12:00,
2013-05-08 12:15:00,78.3,53.3,30.02,NNE,14,1.1,3.3,42,0.00,,,0.00,207.00,VWS V14.01,2013-05-08 17:15:00,
2013-05-08 12:17:00,77.1,54.2,30.02,North,354,4.4,4.4,45,0.00,,,0.00,192.00,VWS V14.01,2013-05-08 17:17:00,
2013-05-08 12:20:00,76.0,54.3,30.02,NNE,16,0.0,0.0,47,0.00,,,0.00,174.00,VWS V14.01,2013-05-08 17:20:00,
2013-05-08 12:21:00,75.9,53.7,30.02,NNE,16,0.0,0.0,46,0.00,,,0.00,174.00,VWS V14.01,2013-05-08 17:21:00,
2013-05-08 12:22:00,75.8,53.6,30.02,NNE,16,0.0,1.1,46,0.00,,,0.00,169.00,VWS V14.01,2013-05-08 17:22:00,
2013-05-08 12:23:00,75.8,53.0,30.02,NNE,16,1.1,1.1,45,0.00,,,0.00,169.00,VWS V14.01,2013-05-08 17:23:00,
2013-05-08 12:25:00,75.8,52.4,30.02,NNE,16,0.0,0.0,44,0.00,,,0.00,158.00,VWS V14.01,2013-05-08 17:25:00,
2013-05-08 12:26:00,75.7,52.9,30.02,NNE,16,2.2,2.2,45,0.00,,,0.00,163.00,VWS V14.01,2013-05-08 17:26:00,
2013-05-08 12:27:00,75.7,52.3,30.01,NNE,16,1.1,2.2,44,0.00,,,0.00,172.00,VWS V14.01,2013-05-08 17:27:00,
2013-05-08 12:30:00,75.8,53.6,30.01,North,359,0.0,1.1,46,0.00,,,0.00,246.00,VWS V14.01,2013-05-08 17:30:00,
2013-05-08 12:32:00,76.7,55.0,30.01,ENE,64,3.3,3.3,47,0.00,,,0.00,1023.00,VWS V14.01,2013-05-08 17:32:00,
2013-05-08 12:33:00,77.1,53.5,30.01,ENE,65,3.3,3.3,44,0.00,,,0.00,1023.00,VWS V14.01,2013-05-08 17:33:00,
2013-05-08 12:35:00,77.7,53.5,30.01,SE,135,3.3,5.5,43,0.00,,,0.00,998.00,VWS V14.01,2013-05-08 17:35:00,
2013-05-08 12:37:00,78.5,58.9,30.01,NNE,33,3.3,5.5,51,0.00,,,0.00,1002.00,VWS V14.01,2013-05-08 17:37:00,
2013-05-08 12:38:00,78.7,53.7,30.01,NNE,33,2.2,3.3,42,0.00,,,0.00,1000.00,VWS V14.01,2013-05-08 17:38:00,
2013-05-08 12:42:00,79.4,56.8,30.01,NNW,330,3.3,9.9,46,0.00,,,0.00,1020.00,VWS V14.01,2013-05-08 17:42:00,
2013-05-08 12:43:00,79.4,54.3,30.01,NNW,330,0.0,3.3,42,0.00,,,0.00,1014.00,VWS V14.01,2013-05-08 17:43:00,
2013-05-08 12:44:00,79.2,55.4,30.01,NNW,335,7.7,7.7,44,0.00,,,0.00,1014.00,VWS V14.01,2013-05-08 17:44:00,
2013-05-08 12:45:00,79.2,54.8,30.01,NNW,328,3.3,7.7,43,0.00,,,0.00,1013.00,VWS V14.01,2013-05-08 17:45:00,
2013-05-08 12:47:00,79.6,58.2,30.01,NW,324,6.6,9.9,48,0.00,,,0.00,1009.00,VWS V14.01,2013-05-08 17:47:00,
2013-05-08 12:49:00,79.6,55.8,30.01,NNE,16,5.5,6.6,44,0.00,,,0.00,1011.00,VWS V14.01,2013-05-08 17:49:00,
2013-05-08 12:51:00,79.5,53.8,30.01,East,91,3.3,3.3,41,0.00,,,0.00,1014.00,VWS V14.01,2013-05-08 17:51:00,
2013-05-08 12:52:00,79.5,55.1,30.01,SW,217,3.3,5.5,43,0.00,,,0.00,1023.00,VWS V14.01,2013-05-08 17:52:00,
2013-05-08 12:55:00,79.3,52.9,30.00,WSW,258,4.4,5.5,40,0.00,,,0.00,1046.00,VWS V14.01,2013-05-08 17:55:00,
2013-05-08 12:56:00,79.2,54.2,30.00,WNW,285,3.3,5.5,42,0.00,,,0.00,1048.00,VWS V14.01,2013-05-08 17:56:00,
2013-05-08 12:57:00,79.2,55.4,30.00,WNW,301,4.4,4.4,44,0.00,,,0.00,1053.00,VWS V14.01,2013-05-08 17:57:00,
2013-05-08 13:00:00,79.4,59.7,30.00,NW,320,5.5,8.8,51,0.00,,,0.00,1072.00,VWS V14.01,2013-05-08 18:00:00,
2013-05-08 13:01:00,79.5,55.7,30.00,NNW,330,4.4,5.5,44,0.00,,,0.00,1069.00,VWS V14.01,2013-05-08 18:01:00,
2013-05-08 13:03:00,78.9,51.9,30.00,NNW,347,2.2,3.3,39,0.00,,,0.00,1069.00,VWS V14.01,2013-05-08 18:03:00,
2013-05-08 13:06:00,78.4,53.4,30.00,SW,216,5.5,5.5,42,0.00,,,0.00,1060.00,VWS V14.01,2013-05-08 18:06:00,
2013-05-08 13:07:00,78.4,55.3,30.00,SSW,198,7.7,8.8,45,0.00,,,0.00,1062.00,VWS V14.01,2013-05-08 18:07:00,
2013-05-08 13:09:00,78.7,56.8,30.00,SW,227,3.3,4.4,47,0.00,,,0.00,1041.00,VWS V14.01,2013-05-08 18:09:00,
2013-05-08 13:10:00,79.0,53.3,30.00,South,179,2.2,4.4,41,0.00,,,0.00,1042.00,VWS V14.01,2013-05-08 18:10:00,
2013-05-08 13:13:00,79.0,54.0,30.00,South,172,3.3,3.3,42,0.00,,,0.00,1041.00,VWS V14.01,2013-05-08 18:13:00,
2013-05-08 13:14:00,78.8,54.4,30.00,WNW,285,3.3,4.4,43,0.00,,,0.00,1037.00,VWS V14.01,2013-05-08 18:14:00,
2013-05-08 13:16:00,78.3,52.7,30.00,WNW,282,2.2,5.5,41,0.00,,,0.00,1039.00,VWS V14.01,2013-05-08 18:16:00,
2013-05-08 13:17:00,78.1,54.4,30.00,North,354,6.6,8.8,44,0.00,,,0.00,1039.00,VWS V14.01,2013-05-08 18:17:00,
2013-05-08 13:18:00,78.2,55.8,30.00,NNE,16,4.4,6.6,46,0.00,,,0.00,1039.00,VWS V14.01,2013-05-08 18:18:00,
2013-05-08 13:19:00,78.1,56.2,30.00,North,350,4.4,4.4,47,0.00,,,0.00,1039.00,VWS V14.01,2013-05-08 18:19:00,
2013-05-08 13:21:00,77.9,53.6,30.00,North,354,3.3,4.4,43,0.00,,,0.00,1039.00,VWS V14.01,2013-05-08 18:21:00,
2013-05-08 13:23:00,77.9,56.7,30.00,North,10,0.0,6.6,48,0.00,,,0.00,1039.00,VWS V14.01,2013-05-08 18:23:00,
2013-05-08 13:24:00,77.7,53.5,30.00,North,359,4.4,4.4,43,0.00,,,0.00,172.00,VWS V14.01,2013-05-08 18:24:00,
2013-05-08 13:26:00,77.0,56.4,30.00,North,354,4.4,6.6,49,0.00,,,0.00,163.00,VWS V14.01,2013-05-08 18:26:00,
2013-05-08 13:29:00,75.9,54.8,30.00,NW,319,5.5,5.5,48,0.00,,,0.00,156.00,VWS V14.01,2013-05-08 18:29:00,
2013-05-08 13:31:00,75.5,53.9,30.00,NW,317,0.0,5.5,47,0.00,,,0.00,163.00,VWS V14.01,2013-05-08 18:31:00,
2013-05-08 13:33:00,75.2,55.3,30.00,NW,318,0.0,2.2,50,0.00,,,0.00,172.00,VWS V14.01,2013-05-08 18:33:00,
2013-05-08 13:34:00,75.3,54.8,30.00,NNE,21,1.1,2.2,49,0.00,,,0.00,174.00,VWS V14.01,2013-05-08 18:34:00,
2013-05-08 13:37:00,75.5,52.7,30.00,NE,56,1.1,3.3,45,0.00,,,0.00,186.00,VWS V14.01,2013-05-08 18:37:00,
2013-05-08 13:38:00,75.7,54.1,30.00,NE,56,1.1,3.3,47,0.00,,,0.00,207.00,VWS V14.01,2013-05-08 18:38:00,
2013-05-08 13:41:00,76.0,53.8,30.00,ENE,62,0.0,1.1,46,0.00,,,0.00,457.00,VWS V14.01,2013-05-08 18:41:00,
2013-05-08 13:42:00,76.2,54.5,30.00,NNW,344,5.5,6.6,47,0.00,,,0.00,457.00,VWS V14.01,2013-05-08 18:42:00,
2013-05-08 13:43:00,76.3,54.0,30.00,NW,318,2.2,5.5,46,0.00,,,0.00,1037.00,VWS V14.01,2013-05-08 18:43:00,
2013-05-08 13:45:00,76.9,55.7,30.00,NW,318,2.2,3.3,48,0.00,,,0.00,1011.00,VWS V14.01,2013-05-08 18:45:00,
2013-05-08 13:47:00,77.8,54.2,30.00,WNW,287,4.4,6.6,44,0.00,,,0.00,167.00,VWS V14.01,2013-05-08 18:47:00,
2013-05-08 13:48:00,77.8,54.2,30.00,NW,309,2.2,5.5,44,0.00,,,0.00,158.00,VWS V14.01,2013-05-08 18:48:00,
2013-05-08 13:51:00,77.1,51.6,30.00,NW,309,0.0,0.0,41,0.00,,,0.00,167.00,VWS V14.01,2013-05-08 18:51:00,
2013-05-08 13:52:00,76.9,53.3,30.00,NW,309,0.0,0.0,44,0.00,,,0.00,172.00,VWS V14.01,2013-05-08 18:52:00,
2013-05-08 13:55:00,76.4,51.0,29.99,NW,309,3.3,3.3,41,0.00,,,0.00,179.00,VWS V14.01,2013-05-08 18:55:00,
2013-05-08 13:57:00,76.4,51.6,29.99,West,270,3.3,6.6,42,0.00,,,0.00,260.00,VWS V14.01,2013-05-08 18:57:00,
2013-05-08 13:59:00,76.6,51.2,29.99,West,267,3.3,4.4,41,0.00,,,0.00,1037.00,VWS V14.01,2013-05-08 18:59:00,
2013-05-08 14:01:00,77.3,51.1,29.99,WSW,252,2.2,5.5,40,0.00,,,0.00,1032.00,VWS V14.01,2013-05-08 19:01:00,
2013-05-08 14:04:00,77.6,51.4,29.99,West,271,2.2,3.3,40,0.00,,,0.00,225.00,VWS V14.01,2013-05-08 19:04:00,
2013-05-08 14:06:00,77.4,50.5,29.99,West,259,0.0,1.1,39,0.00,,,0.00,225.00,VWS V14.01,2013-05-08 19:06:00,
2013-05-08 14:08:00,77.2,51.7,29.99,NW,307,3.3,6.6,41,0.00,,,0.00,243.00,VWS V14.01,2013-05-08 19:08:00,
2013-05-08 14:09:00,77.1,50.9,29.99,NW,324,2.2,3.3,40,0.00,,,0.00,209.00,VWS V14.01,2013-05-08 19:09:00,
2013-05-08 14:13:00,76.7,52.5,29.99,NW,326,0.0,1.1,43,0.00,,,0.00,158.00,VWS V14.01,2013-05-08 19:13:00,
2013-05-08 14:14:00,76.7,53.2,29.99,NW,326,0.0,0.0,44,0.00,,,0.00,156.00,VWS V14.01,2013-05-08 19:14:00,
2013-05-08 14:16:00,76.7,53.2,29.99,NNW,344,0.0,4.4,44,0.00,,,0.00,160.00,VWS V14.01,2013-05-08 19:16:00,
2013-05-08 14:17:00,76.6,51.2,29.99,NNW,344,0.0,3.3,41,0.00,,,0.00,165.00,VWS V14.01,2013-05-08 19:17:00,
2013-05-08 14:18:00,76.6,52.5,29.99,NNE,12,2.2,2.2,43,0.00,,,0.00,171.00,VWS V14.01,2013-05-08 19:18:00,
2013-05-08 14:21:00,76.6,51.8,29.99,North,11,0.0,3.3,42,0.00,,,0.00,172.00,VWS V14.01,2013-05-08 19:21:00,
2013-05-08 14:22:00,76.6,52.5,29.99,North,11,1.1,1.1,43,0.00,,,0.00,179.00,VWS V14.01,2013-05-08 19:22:00,
2013-05-08 14:23:00,76.6,53.7,29.99,North,4,5.5,5.5,45,0.00,,,0.00,188.00,VWS V14.01,2013-05-08 19:23:00,
2013-05-08 14:26:00,76.6,53.7,29.99,NNW,348,3.3,4.4,45,0.00,,,0.00,206.00,VWS V14.01,2013-05-08 19:26:00,
2013-05-08 14:27:00,76.6,54.3,29.99,NNW,337,3.3,3.3,46,0.00,,,0.00,207.00,VWS V14.01,2013-05-08 19:27:00,
2013-05-08 14:29:00,76.6,52.5,29.99,NNW,337,2.2,4.4,43,0.00,,,0.00,216.00,VWS V14.01,2013-05-08 19:29:00,
2013-05-08 14:30:00,76.6,52.5,29.99,NNW,337,2.2,2.2,43,0.00,,,0.00,225.00,VWS V14.01,2013-05-08 19:30:00,
2013-05-08 14:34:00,76.8,54.5,29.99,NW,326,1.1,3.3,46,0.00,,,0.00,248.00,VWS V14.01,2013-05-08 19:34:00,
2013-05-08 14:35:00,76.8,53.9,29.99,NW,326,0.0,2.2,45,0.00,,,0.00,258.00,VWS V14.01,2013-05-08 19:35:00,
2013-05-08 14:36:00,76.8,51.3,29.99,NW,326,1.1,2.2,41,0.00,,,0.00,272.00,VWS V14.01,2013-05-08 19:36:00,
2013-05-08 14:37:00,76.9,55.2,29.99,NNE,31,0.0,3.3,47,0.00,,,0.00,272.00,VWS V14.01,2013-05-08 19:37:00,
2013-05-08 14:39:00,77.1,54.8,29.99,NNE,31,0.0,0.0,46,0.00,,,0.00,302.00,VWS V14.01,2013-05-08 19:39:00,
2013-05-08 14:40:00,77.2,56.0,29.99,NNE,31,2.2,2.2,48,0.00,,,0.00,302.00,VWS V14.01,2013-05-08 19:40:00,
2013-05-08 14:42:00,77.5,53.9,29.98,NNW,340,1.1,3.3,44,0.00,,,0.00,399.00,VWS V14.01,2013-05-08 19:42:00,
2013-05-08 14:44:00,78.4,52.1,29.98,NW,305,1.1,3.3,40,0.00,,,0.00,1011.00,VWS V14.01,2013-05-08 19:44:00,
2013-05-08 14:45:00,78.9,52.5,29.98,West,275,2.2,2.2,40,0.00,,,0.00,998.00,VWS V14.01,2013-05-08 19:45:00,
2013-05-08 14:48:00,79.8,56.0,29.98,South,179,1.1,4.4,44,0.00,,,0.00,949.00,VWS V14.01,2013-05-08 19:48:00,
2013-05-08 14:50:00,80.1,51.5,29.98,SW,226,2.2,2.2,37,0.00,,,0.00,949.00,VWS V14.01,2013-05-08 19:50:00,
2013-05-08 14:52:00,79.7,53.3,29.98,SW,224,0.0,3.3,40,0.00,,,0.00,185.00,VWS V14.01,2013-05-08 19:52:00,
2013-05-08 14:54:00,79.1,51.3,29.98,WNW,289,3.3,4.4,38,0.00,,,0.00,183.00,VWS V14.01,2013-05-08 19:54:00,
2013-05-08 14:56:00,78.5,50.8,29.98,WNW,294,1.1,3.3,38,0.00,,,0.00,176.00,VWS V14.01,2013-05-08 19:56:00,
2013-05-08 14:57:00,78.3,52.7,29.98,WNW,291,2.2,3.3,41,0.00,,,0.00,174.00,VWS V14.01,2013-05-08 19:57:00,
2013-05-08 14:59:00,77.9,52.3,29.98,NW,312,3.3,5.5,41,0.00,,,0.00,176.00,VWS V14.01,2013-05-08 19:59:00,
2013-05-08 15:02:00,77.3,53.1,29.98,NW,310,4.4,5.5,43,0.00,,,0.00,169.00,VWS V14.01,2013-05-08 20:02:00,
2013-05-08 15:05:00,77.1,50.3,29.98,WNW,295,0.0,0.0,39,0.00,,,0.00,171.00,VWS V14.01,2013-05-08 20:05:00,
2013-05-08 15:06:00,77.1,50.3,29.98,WNW,295,0.0,0.0,39,0.00,,,0.00,172.00,VWS V14.01,2013-05-08 20:06:00,
2013-05-08 15:07:00,77.1,50.3,29.98,WNW,295,2.2,2.2,39,0.00,,,0.00,176.00,VWS V14.01,2013-05-08 20:07:00,
2013-05-08 15:08:00,77.1,49.6,29.98,WNW,292,5.5,7.7,38,0.00,,,0.00,179.00,VWS V14.01,2013-05-08 20:08:00,
2013-05-08 15:10:00,77.3,51.1,29.98,WNW,296,5.5,6.6,40,0.00,,,0.00,197.00,VWS V14.01,2013-05-08 20:10:00,
2013-05-08 15:12:00,77.3,51.1,29.98,NW,305,4.4,5.5,40,0.00,,,0.00,223.00,VWS V14.01,2013-05-08 20:12:00,
2013-05-08 15:15:00,77.3,52.5,29.98,WNW,293,4.4,9.9,42,0.00,,,0.00,276.00,VWS V14.01,2013-05-08 20:15:00,
2013-05-08 15:16:00,77.5,52.0,29.98,WNW,285,6.6,9.9,41,0.00,,,0.00,276.00,VWS V14.01,2013-05-08 20:16:00,
2013-05-08 15:18:00,78.2,53.9,29.97,NW,326,6.6,7.7,43,0.00,,,0.00,891.00,VWS V14.01,2013-05-08 20:18:00,
2013-05-08 15:19:00,78.4,51.4,29.98,WNW,284,4.4,6.6,39,0.00,,,0.00,888.00,VWS V14.01,2013-05-08 20:19:00,
2013-05-08 15:22:00,79.7,55.2,29.97,WNW,289,3.3,8.8,43,0.00,,,0.00,875.00,VWS V14.01,2013-05-08 20:22:00,
2013-05-08 15:23:00,80.0,52.8,29.97,WNW,293,1.1,4.4,39,0.00,,,0.00,874.00,VWS V14.01,2013-05-08 20:23:00,
2013-05-08 15:24:00,80.2,53.7,29.97,North,354,4.4,4.4,40,0.00,,,0.00,877.00,VWS V14.01,2013-05-08 20:24:00,
2013-05-08 15:26:00,80.7,54.8,29.97,East,80,5.5,9.9,41,0.00,,,0.00,877.00,VWS V14.01,2013-05-08 20:26:00,
2013-05-08 15:28:00,80.5,55.3,29.97,NE,48,5.5,7.7,42,0.00,,,0.00,877.00,VWS V14.01,2013-05-08 20:28:00,
2013-05-08 15:29:00,80.6,54.8,29.97,East,89,9.9,9.9,41,0.00,,,0.00,872.00,VWS V14.01,2013-05-08 20:29:00,
2013-05-08 15:33:00,80.7,54.2,29.97,East,93,3.3,7.7,40,0.00,,,0.00,847.00,VWS V14.01,2013-05-08 20:33:00,
2013-05-08 15:34:00,80.6,55.4,29.97,NE,54,4.4,8.8,42,0.00,,,0.00,835.00,VWS V14.01,2013-05-08 20:34:00,
2013-05-08 15:35:00,80.5,54.7,29.97,NNE,13,2.2,9.9,41,0.00,,,0.00,821.00,VWS V14.01,2013-05-08 20:35:00,
2013-05-08 15:39:00,80.5,54.0,29.97,East,79,5.5,9.9,40,0.00,,,0.00,838.00,VWS V14.01,2013-05-08 20:39:00,
2013-05-08 15:40:00,80.4,55.9,29.97,NE,43,0.0,8.8,43,0.00,,,0.00,826.00,VWS V14.01,2013-05-08 20:40:00,
2013-05-08 15:41:00,80.4,53.9,29.97,NE,52,6.6,6.6,40,0.00,,,0.00,819.00,VWS V14.01,2013-05-08 20:41:00,
2013-05-08 15:44:00,80.4,53.2,29.97,ENE,68,7.7,7.7,39,0.00,,,0.00,824.00,VWS V14.01,2013-05-08 20:44:00,
2013-05-08 15:45:00,80.5,55.3,29.97,ENE,68,4.4,7.7,42,0.00,,,0.00,805.00,VWS V14.01,2013-05-08 20:45:00,
2013-05-08 15:46:00,80.7,54.8,29.97,East,91,1.1,6.6,41,0.00,,,0.00,738.00,VWS V14.01,2013-05-08 20:46:00,
2013-05-08 15:47:00,81.1,60.2,29.97,East,83,0.0,2.2,49,0.00,,,0.00,759.00,VWS V14.01,2013-05-08 20:47:00,
2013-05-08 15:49:00,81.6,55.6,29.97,ENE,70,5.5,8.8,41,0.00,,,0.00,759.00,VWS V14.01,2013-05-08 20:49:00,
2013-05-08 15:51:00,81.4,54.1,29.97,East,83,2.2,7.7,39,0.00,,,0.00,250.00,VWS V14.01,2013-05-08 20:51:00,
2013-05-08 15:52:00,81.2,57.2,29.97,ENE,63,1.1,7.7,44,0.00,,,0.00,250.00,VWS V14.01,2013-05-08 20:52:00,
2013-05-08 15:54:00,80.7,53.5,29.97,ENE,66,8.8,8.8,39,0.00,,,0.00,782.00,VWS V14.01,2013-05-08 20:54:00,
2013-05-08 15:56:00,80.5,53.3,29.97,NE,43,8.8,8.8,39,0.00,,,0.00,731.00,VWS V14.01,2013-05-08 20:56:00,
2013-05-08 15:59:00,80.1,54.3,29.96,ENE,57,3.3,5.5,41,0.00,,,0.00,719.00,VWS V14.01,2013-05-08 20:59:00,
2013-05-08 16:02:00,80.3,55.1,29.96,ENE,60,0.0,7.7,42,0.00,,,0.00,751.00,VWS V14.01,2013-05-08 21:02:00,
2013-05-08 16:03:00,80.5,56.0,29.96,NE,55,3.3,6.6,43,0.00,,,0.00,752.00,VWS V14.01,2013-05-08 21:03:00,
2013-05-08 16:07:00,80.3,53.8,29.96,ENE,58,2.2,5.5,40,0.00,,,0.00,192.00,VWS V14.01,2013-05-08 21:07:00,
2013-05-08 16:08:00,80.2,54.4,29.96,ESE,112,2.2,9.9,41,0.00,,,0.00,193.00,VWS V14.01,2013-05-08 21:08:00,
2013-05-08 16:09:00,80.1,54.3,29.96,East,90,3.3,8.8,41,0.00,,,0.00,185.00,VWS V14.01,2013-05-08 21:09:00,
2013-05-08 16:10:00,79.9,54.1,29.96,ESE,105,4.4,7.7,41,0.00,,,0.00,174.00,VWS V14.01,2013-05-08 21:10:00,
2013-05-08 16:15:00,79.1,55.3,29.96,NE,38,3.3,7.7,44,0.00,,,0.00,571.00,VWS V14.01,2013-05-08 21:15:00,
2013-05-08 16:16:00,79.2,55.4,29.96,NNE,25,1.1,4.4,44,0.00,,,0.00,721.00,VWS V14.01,2013-05-08 21:16:00,
2013-05-08 16:17:00,79.3,54.2,29.96,NNE,31,2.2,3.3,42,0.00,,,0.00,708.00,VWS V14.01,2013-05-08 21:17:00,
2013-05-08 16:20:00,79.6,53.8,29.96,North,354,3.3,7.7,41,0.00,,,0.00,708.00,VWS V14.01,2013-05-08 21:20:00,
2013-05-08 16:23:00,79.6,55.2,29.96,NE,53,5.5,12.1,43,0.00,,,0.00,649.00,VWS V14.01,2013-05-08 21:23:00,
2013-05-08 16:24:00,79.7,53.9,29.96,NNE,33,8.8,8.8,41,0.00,,,0.00,645.00,VWS V14.01,2013-05-08 21:24:00,
2013-05-08 16:26:00,79.8,54.0,29.96,East,94,3.3,5.5,41,0.00,,,0.00,638.00,VWS V14.01,2013-05-08 21:26:00,
2013-05-08 16:27:00,79.9,54.1,29.96,East,79,7.7,8.8,41,0.00,,,0.00,645.00,VWS V14.01,2013-05-08 21:27:00,
2013-05-08 16:28:00,79.8,53.4,29.96,East,81,6.6,8.8,40,0.00,,,0.00,636.00,VWS V14.01,2013-05-08 21:28:00,
2013-05-08 16:30:00,79.8,54.0,29.96,East,89,2.2,3.3,41,0.00,,,0.00,636.00,VWS V14.01,2013-05-08 21:30:00,
2013-05-08 16:34:00,80.1,53.6,29.96,NE,49,9.9,11.0,40,0.00,,,0.00,148.00,VWS V14.01,2013-05-08 21:34:00,
2013-05-08 16:35:00,80.1,52.9,29.96,NE,56,9.9,11.0,39,0.00,,,0.00,137.00,VWS V14.01,2013-05-08 21:35:00,
2013-05-08 16:37:00,79.7,54.6,29.96,East,100,2.2,7.7,42,0.00,,,0.00,141.00,VWS V14.01,2013-05-08 21:37:00,
2013-05-08 16:39:00,79.3,54.2,29.96,NE,43,3.3,6.6,42,0.00,,,0.00,141.00,VWS V14.01,2013-05-08 21:39:00,
2013-05-08 16:40:00,79.1,52.7,29.96,ENE,64,2.2,5.5,40,0.00,,,0.00,573.00,VWS V14.01,2013-05-08 21:40:00,
2013-05-08 16:41:00,79.0,52.6,29.96,NE,39,2.2,7.7,40,0.00,,,0.00,137.00,VWS V14.01,2013-05-08 21:41:00,
2013-05-08 16:42:00,78.8,53.8,29.96,East,87,5.5,6.6,42,0.00,,,0.00,139.00,VWS V14.01,2013-05-08 21:42:00,
2013-05-08 16:45:00,78.2,53.2,29.96,NE,53,3.3,7.7,42,0.00,,,0.00,554.00,VWS V14.01,2013-05-08 21:45:00,
2013-05-08 16:47:00,78.0,53.7,29.96,ENE,68,4.4,6.6,43,0.00,,,0.00,128.00,VWS V14.01,2013-05-08 21:47:00,
2013-05-08 16:48:00,77.8,52.9,29.96,NNE,27,3.3,7.7,42,0.00,,,0.00,114.00,VWS V14.01,2013-05-08 21:48:00,
2013-05-08 16:50:00,77.4,53.2,29.96,ENE,66,3.3,7.7,43,0.00,,,0.00,105.00,VWS V14.01,2013-05-08 21:50:00,
2013-05-08 16:52:00,77.1,52.9,29.96,NE,49,3.3,9.9,43,0.00,,,0.00,100.00,VWS V14.01,2013-05-08 21:52:00,
2013-05-08 16:53:00,77.0,52.8,29.96,NE,47,5.5,7.7,43,0.00,,,0.00,98.00,VWS V14.01,2013-05-08 21:53:00,
2013-05-08 16:56:00,76.7,52.5,29.96,NNE,14,5.5,6.6,43,0.00,,,0.00,105.00,VWS V14.01,2013-05-08 21:56:00,
2013-05-08 16:57:00,76.6,53.1,29.96,ENE,58,3.3,6.6,44,0.00,,,0.00,179.00,VWS V14.01,2013-05-08 21:57:00,
2013-05-08 17:01:00,76.9,53.3,29.96,ESE,102,0.0,4.4,44,0.00,,,0.00,448.00,VWS V14.01,2013-05-08 22:01:00,
2013-05-08 17:02:00,77.2,53.0,29.97,East,96,6.6,11.0,43,0.00,,,0.00,441.00,VWS V14.01,2013-05-08 22:02:00,
2013-05-08 17:04:00,77.5,52.6,29.96,East,101,3.3,5.5,42,0.00,,,0.00,427.00,VWS V14.01,2013-05-08 22:04:00,
2013-05-08 17:05:00,77.6,53.4,29.97,NNE,32,5.5,8.8,43,0.00,,,0.00,434.00,VWS V14.01,2013-05-08 22:05:00,
2013-05-08 17:07:00,77.9,53.0,29.97,NE,50,5.5,9.9,42,0.00,,,0.00,415.00,VWS V14.01,2013-05-08 22:07:00,
2013-05-08 17:10:00,78.2,52.6,29.97,East,89,6.6,7.7,41,0.00,,,0.00,396.00,VWS V14.01,2013-05-08 22:10:00,
2013-05-08 17:11:00,78.2,53.2,29.97,NE,49,4.4,7.7,42,0.00,,,0.00,385.00,VWS V14.01,2013-05-08 22:11:00,
2013-05-08 17:12:00,78.2,53.2,29.97,ENE,72,3.3,7.7,42,0.00,,,0.00,364.00,VWS V14.01,2013-05-08 22:12:00,
2013-05-08 17:15:00,78.2,54.5,29.96,ENE,68,5.5,5.5,44,0.00,,,0.00,339.00,VWS V14.01,2013-05-08 22:15:00,
2013-05-08 17:16:00,78.3,53.3,29.96,NE,43,8.8,11.0,42,0.00,,,0.00,341.00,VWS V14.01,2013-05-08 22:16:00,
2013-05-08 17:17:00,78.3,52.7,29.96,NE,40,6.6,8.8,41,0.00,,,0.00,369.00,VWS V14.01,2013-05-08 22:17:00,
2013-05-08 17:18:00,78.2,52.6,29.96,ENE,59,2.2,8.8,41,0.00,,,0.00,357.00,VWS V14.01,2013-05-08 22:18:00,
2013-05-08 17:19:00,78.2,53.2,29.96,ENE,62,3.3,7.7,42,0.00,,,0.00,369.00,VWS V14.01,2013-05-08 22:19:00,
2013-05-08 17:21:00,78.1,53.8,29.96,ENE,74,4.4,9.9,43,0.00,,,0.00,345.00,VWS V14.01,2013-05-08 22:21:00,
2013-05-08 17:22:00,78.1,53.2,29.96,East,81,3.3,7.7,42,0.00,,,0.00,369.00,VWS V14.01,2013-05-08 22:22:00,
2013-05-08 17:26:00,78.0,53.1,29.97,NE,54,4.4,8.8,42,0.00,,,0.00,199.00,VWS V14.01,2013-05-08 22:26:00,
2013-05-08 17:27:00,77.9,52.3,29.97,ENE,69,2.2,9.9,41,0.00,,,0.00,202.00,VWS V14.01,2013-05-08 22:27:00,
2013-05-08 17:32:00,77.2,52.4,29.97,ENE,60,2.2,6.6,42,0.00,,,0.00,246.00,VWS V14.01,2013-05-08 22:32:00,
2013-05-08 17:33:00,77.1,52.9,29.97,NE,50,9.9,12.1,43,0.00,,,0.00,218.00,VWS V14.01,2013-05-08 22:33:00,
2013-05-08 17:34:00,77.0,52.8,29.97,ENE,67,1.1,9.9,43,0.00,,,0.00,250.00,VWS V14.01,2013-05-08 22:34:00,
2013-05-08 17:38:00,76.8,52.6,29.97,East,91,6.6,9.9,43,0.00,,,0.00,125.00,VWS V14.01,2013-05-08 22:38:00,
2013-05-08 17:40:00,76.6,51.8,29.97,NE,50,3.3,5.5,42,0.00,,,0.00,130.00,VWS V14.01,2013-05-08 22:40:00,
2013-05-08 17:41:00,76.5,52.4,29.97,NNE,25,6.6,6.6,43,0.00,,,0.00,193.00,VWS V14.01,2013-05-08 22:41:00,
2013-05-08 17:43:00,76.3,52.8,29.97,NE,48,4.4,4.4,44,0.00,,,0.00,206.00,VWS V14.01,2013-05-08 22:43:00,
2013-05-08 17:44:00,76.3,51.5,29.97,ENE,58,7.7,8.8,42,0.00,,,0.00,199.00,VWS V14.01,2013-05-08 22:44:00,
2013-05-08 17:47:00,76.1,52.0,29.97,East,85,2.2,8.8,43,0.00,,,0.00,225.00,VWS V14.01,2013-05-08 22:47:00,
2013-05-08 17:49:00,76.0,51.9,29.97,ENE,75,3.3,5.5,43,0.00,,,0.00,218.00,VWS V14.01,2013-05-08 22:49:00,
2013-05-08 17:50:00,76.0,51.9,29.97,NE,35,4.4,8.8,43,0.00,,,0.00,193.00,VWS V14.01,2013-05-08 22:50:00,
2013-05-08 17:51:00,76.0,51.9,29.97,NE,49,6.6,6.6,43,0.00,,,0.00,200.00,VWS V14.01,2013-05-08 22:51:00,
2013-05-08 17:52:00,76.0,51.9,29.97,NNE,30,5.5,6.6,43,0.00,,,0.00,220.00,VWS V14.01,2013-05-08 22:52:00,
2013-05-08 17:56:00,76.0,51.9,29.97,NE,41,2.2,7.7,43,0.00,,,0.00,213.00,VWS V14.01,2013-05-08 22:56:00,
2013-05-08 17:57:00,76.0,52.5,29.97,NNE,15,0.0,3.3,44,0.00,,,0.00,229.00,VWS V14.01,2013-05-08 22:57:00,
2013-05-08 17:59:00,76.1,52.6,29.97,NE,50,7.7,9.9,44,0.00,,,0.00,241.00,VWS V14.01,2013-05-08 22:59:00,
2013-05-08 18:00:00,76.1,52.6,29.97,East,79,2.2,8.8,44,0.00,,,0.00,237.00,VWS V14.01,2013-05-08 23:00:00,
2013-05-08 18:03:00,76.1,52.0,29.97,NE,46,5.5,9.9,43,0.00,,,0.00,258.00,VWS V14.01,2013-05-08 23:03:00,
2013-05-08 18:05:00,76.1,52.6,29.97,ENE,63,7.7,8.8,44,0.00,,,0.00,260.00,VWS V14.01,2013-05-08 23:05:00,
2013-05-08 18:06:00,76.0,51.9,29.97,East,82,2.2,7.7,43,0.00,,,0.00,257.00,VWS V14.01,2013-05-08 23:06:00,
2013-05-08 18:08:00,76.0,52.5,29.97,ENE,58,2.2,5.5,44,0.00,,,0.00,267.00,VWS V14.01,2013-05-08 23:08:00,
2013-05-08 18:11:00,76.1,52.0,29.97,NNE,21,3.3,5.5,43,0.00,,,0.00,202.00,VWS V14.01,2013-05-08 23:11:00,
2013-05-08 18:12:00,76.0,52.5,29.97,NE,50,3.3,4.4,44,0.00,,,0.00,178.00,VWS V14.01,2013-05-08 23:12:00,
2013-05-08 18:16:00,75.9,51.8,29.97,NE,45,4.4,4.4,43,0.00,,,0.00,141.00,VWS V14.01,2013-05-08 23:16:00,
2013-05-08 18:17:00,75.8,51.7,29.97,East,87,2.2,9.9,43,0.00,,,0.00,137.00,VWS V14.01,2013-05-08 23:17:00,
2013-05-08 18:19:00,75.6,52.2,29.97,NE,56,1.1,6.6,44,0.00,,,0.00,137.00,VWS V14.01,2013-05-08 23:19:00,
2013-05-08 18:21:00,75.3,51.9,29.97,NE,56,2.2,5.5,44,0.00,,,0.00,116.00,VWS V14.01,2013-05-08 23:21:00,
2013-05-08 18:22:00,75.2,51.8,29.97,NE,41,4.4,6.6,44,0.00,,,0.00,109.00,VWS V14.01,2013-05-08 23:22:00,
2013-05-08 18:24:00,75.0,51.6,29.97,ENE,61,8.8,8.8,44,0.00,,,0.00,98.00,VWS V14.01,2013-05-08 23:24:00,
2013-05-08 18:26:00,74.9,51.5,29.97,East,83,5.5,7.7,44,0.00,,,0.00,90.00,VWS V14.01,2013-05-08 23:26:00,
2013-05-08 18:28:00,74.7,50.7,29.97,NE,48,0.0,5.5,43,0.00,,,0.00,86.00,VWS V14.01,2013-05-08 23:28:00,
2013-05-08 18:29:00,74.5,51.2,29.97,NE,42,7.7,7.7,44,0.00,,,0.00,86.00,VWS V14.01,2013-05-08 23:29:00,
2013-05-08 18:31:00,74.4,51.1,29.97,NE,41,0.0,3.3,44,0.00,,,0.00,84.00,VWS V14.01,2013-05-08 23:31:00,
2013-05-08 18:33:00,74.3,51.0,29.97,ENE,72,2.2,5.5,44,0.00,,,0.00,84.00,VWS V14.01,2013-05-08 23:33:00,
2013-05-08 18:34:00,74.2,51.5,29.97,East,85,0.0,2.2,45,0.00,,,0.00,86.00,VWS V14.01,2013-05-08 23:34:00,
2013-05-08 18:35:00,74.1,52.0,29.96,NE,48,2.2,4.4,46,0.00,,,0.00,90.00,VWS V14.01,2013-05-08 23:35:00,
2013-05-08 18:37:00,74.0,51.3,29.97,NE,45,2.2,4.4,45,0.00,,,0.00,105.00,VWS V14.01,2013-05-08 23:37:00,
2013-05-08 18:41:00,73.9,51.2,29.97,North,4,2.2,6.6,45,0.00,,,0.00,128.00,VWS V14.01,2013-05-08 23:41:00,
2013-05-08 18:42:00,73.9,51.8,29.97,ENE,61,3.3,4.4,46,0.00,,,0.00,130.00,VWS V14.01,2013-05-08 23:42:00,
2013-05-08 18:43:00,73.8,51.8,29.97,NE,56,1.1,6.6,46,0.00,,,0.00,127.00,VWS V14.01,2013-05-08 23:43:00,
2013-05-08 18:44:00,73.8,51.8,29.97,ENE,60,3.3,4.4,46,0.00,,,0.00,121.00,VWS V14.01,2013-05-08 23:44:00,
2013-05-08 18:46:00,73.7,52.8,29.97,NNE,25,1.1,3.3,48,0.00,,,0.00,125.00,VWS V14.01,2013-05-08 23:46:00,
2013-05-08 18:48:00,73.6,52.2,29.97,ENE,73,2.2,5.5,47,0.00,,,0.00,100.00,VWS V14.01,2013-05-08 23:48:00,
2013-05-08 18:50:00,73.5,51.5,29.97,NE,46,6.6,9.9,46,0.00,,,0.00,84.00,VWS V14.01,2013-05-08 23:50:00,
2013-05-08 18:52:00,73.4,52.0,29.97,ENE,62,2.2,6.6,47,0.00,,,0.00,81.00,VWS V14.01,2013-05-08 23:52:00,
2013-05-08 18:53:00,73.3,52.5,29.97,ENE,57,2.2,5.5,48,0.00,,,0.00,79.00,VWS V14.01,2013-05-08 23:53:00,
2013-05-08 18:55:00,73.1,52.3,29.97,ENE,65,3.3,4.4,48,0.00,,,0.00,77.00,VWS V14.01,2013-05-08 23:55:00,
2013-05-08 18:57:00,73.0,52.2,29.97,NE,54,1.1,6.6,48,0.00,,,0.00,72.00,VWS V14.01,2013-05-08 23:57:00,
2013-05-08 18:58:00,72.9,52.1,29.97,ENE,61,7.7,7.7,48,0.00,,,0.00,70.00,VWS V14.01,2013-05-08 23:58:00,
2013-05-08 19:01:00,72.7,51.9,29.97,NE,47,3.3,5.5,48,0.00,,,0.00,65.00,VWS V14.01,2013-05-09 00:01:00,
2013-05-08 19:02:00,72.6,51.8,29.97,NE,50,0.0,3.3,48,0.00,,,0.00,63.00,VWS V14.01,2013-05-09 00:02:00,
2013-05-08 19:04:00,72.5,52.3,29.97,ENE,66,2.2,6.6,49,0.00,,,0.00,60.00,VWS V14.01,2013-05-09 00:04:00,
2013-05-08 19:06:00,72.3,52.1,29.97,NE,43,2.2,2.2,49,0.00,,,0.00,56.00,VWS V14.01,2013-05-09 00:06:00,
2013-05-08 19:08:00,72.2,52.0,29.97,East,83,2.2,7.7,49,0.00,,,0.00,51.00,VWS V14.01,2013-05-09 00:08:00,
2013-05-08 19:12:00,71.9,52.3,29.97,East,81,1.1,6.6,50,0.00,,,0.00,44.00,VWS V14.01,2013-05-09 00:12:00,
2013-05-08 19:13:00,71.9,52.3,29.97,NE,49,6.6,7.7,50,0.00,,,0.00,44.00,VWS V14.01,2013-05-09 00:13:00,
2013-05-08 19:14:00,71.8,51.6,29.97,NE,43,1.1,6.6,49,0.00,,,0.00,42.00,VWS V14.01,2013-05-09 00:14:00,
2013-05-08 19:15:00,71.7,52.1,29.97,NNE,33,2.2,5.5,50,0.00,,,0.00,40.00,VWS V14.01,2013-05-09 00:15:00,
2013-05-08 19:20:00,71.3,51.7,29.97,East,79,0.0,5.5,50,0.00,,,0.00,33.00,VWS V14.01,2013-05-09 00:20:00,
2013-05-08 19:21:00,71.2,51.6,29.97,ENE,59,4.4,4.4,50,0.00,,,0.00,32.00,VWS V14.01,2013-05-09 00:21:00,
2013-05-08 19:23:00,71.1,51.5,29.97,NE,54,1.1,3.3,50,0.00,,,0.00,30.00,VWS V14.01,2013-05-09 00:23:00,
2013-05-08 19:25:00,71.0,51.5,29.97,ENE,78,2.2,3.3,50,0.00,,,0.00,26.00,VWS V14.01,2013-05-09 00:25:00,
2013-05-08 19:26:00,70.9,51.9,29.97,ENE,66,3.3,5.5,51,0.00,,,0.00,26.00,VWS V14.01,2013-05-09 00:26:00,
2013-05-08 19:27:00,70.8,51.8,29.97,NE,52,2.2,4.4,51,0.00,,,0.00,25.00,VWS V14.01,2013-05-09 00:27:00,
2013-05-08 19:29:00,70.7,51.7,29.97,NE,44,3.3,3.3,51,0.00,,,0.00,23.00,VWS V14.01,2013-05-09 00:29:00,
2013-05-08 19:32:00,70.4,51.4,29.97,ENE,68,2.2,2.2,51,0.00,,,0.00,19.00,VWS V14.01,2013-05-09 00:32:00,
2013-05-08 19:34:00,70.3,51.9,29.97,NE,45,4.4,5.5,52,0.00,,,0.00,18.00,VWS V14.01,2013-05-09 00:34:00,
2013-05-08 19:35:00,70.1,51.7,29.97,ENE,60,2.2,4.4,52,0.00,,,0.00,18.00,VWS V14.01,2013-05-09 00:35:00,
2013-05-08 19:36:00,70.1,51.7,29.97,East,83,5.5,5.5,52,0.00,,,0.00,14.00,VWS V14.01,2013-05-09 00:36:00,
2013-05-08 19:37:00,70.0,51.6,29.97,NE,43,2.2,5.5,52,0.00,,,0.00,14.00,VWS V14.01,2013-05-09 00:37:00,
2013-05-08 19:39:00,69.8,51.4,29.97,NE,48,6.6,6.6,52,0.00,,,0.00,12.00,VWS V14.01,2013-05-09 00:39:00,
2013-05-08 19:40:00,69.8,51.9,29.97,NE,49,1.1,6.6,53,0.00,,,0.00,12.00,VWS V14.01,2013-05-09 00:40:00,
2013-05-08 19:42:00,69.6,51.2,29.97,NE,43,1.1,1.1,52,0.00,,,0.00,9.00,VWS V14.01,2013-05-09 00:42:00,
2013-05-08 19:45:00,69.3,51.5,29.97,NE,51,1.1,1.1,53,0.00,,,0.00,7.00,VWS V14.01,2013-05-09 00:45:00,
2013-05-08 19:46:00,69.3,51.5,29.97,ENE,66,2.2,4.4,53,0.00,,,0.00,7.00,VWS V14.01,2013-05-09 00:46:00,
2013-05-08 19:48:00,69.1,51.8,29.97,NE,50,5.5,5.5,54,0.00,,,0.00,5.00,VWS V14.01,2013-05-09 00:48:00,
2013-05-08 19:52:00,68.8,51.5,29.97,NE,51,0.0,2.2,54,0.00,,,0.00,0.00,VWS V14.01,2013-05-09 00:52:00,
2013-05-08 19:54:00,68.7,51.4,29.97,NE,52,2.2,3.3,54,0.00,,,0.00,0.00,VWS V14.01,2013-05-09 00:54:00,
2013-05-08 19:55:00,68.7,51.9,29.97,ENE,64,1.1,5.5,55,0.00,,,0.00,0.00,VWS V14.01,2013-05-09 00:55:00,
2013-05-08 19:56:00,68.5,51.2,29.97,East,81,5.5,5.5,54,0.00,,,0.00,0.00,VWS V14.01,2013-05-09 00:56:00,
2013-05-08 19:58:00,68.4,51.6,29.97,East,79,3.3,3.3,55,0.00,,,0.00,0.00,VWS V14.01,2013-05-09 00:58:00,
2013-05-08 19:59:00,68.3,51.5,29.97,ENE,68,1.1,5.5,55,0.00,,,0.00,0.00,VWS V14.01,2013-05-09 00:59:00,
2013-05-08 20:00:00,68.3,51.5,29.98,ENE,68,1.1,3.3,55,0.00,,,0.00,0.00,VWS V14.01,2013-05-09 01:00:00,
2013-05-08 20:03:00,68.1,51.3,29.97,ENE,70,1.1,3.3,55,0.00,,,0.00,0.00,VWS V14.01,2013-05-09 01:03:00,
2013-05-08 20:06:00,67.9,51.2,29.98,ENE,70,2.2,3.3,55,0.00,,,0.00,0.00,VWS V14.01,2013-05-09 01:06:00,
2013-05-08 20:07:00,67.8,51.5,29.98,ENE,70,1.1,2.2,56,0.00,,,0.00,0.00,VWS V14.01,2013-05-09 01:07:00,
2013-05-08 20:08:00,67.7,51.5,29.98,ENE,70,0.0,2.2,56,0.00,,,0.00,0.00,VWS V14.01,2013-05-09 01:08:00,
2013-05-08 20:11:00,67.5,51.8,29.98,NE,47,0.0,4.4,57,0.00,,,0.00,0.00,VWS V14.01,2013-05-09 01:11:00,
2013-05-08 20:13:00,67.3,51.6,29.98,NNE,33,1.1,4.4,57,0.00,,,0.00,0.00,VWS V14.01,2013-05-09 01:13:00,
2013-05-08 20:14:00,67.2,51.5,29.98,NE,47,1.1,4.4,57,0.00,,,0.00,0.00,VWS V14.01,2013-05-09 01:14:00,
2013-05-08 20:17:00,67.0,51.3,29.98,NE,54,0.0,3.3,57,0.00,,,0.00,0.00,VWS V14.01,2013-05-09 01:17:00,
2013-05-08 20:18:00,66.9,51.2,29.98,NE,53,2.2,2.2,57,0.00,,,0.00,0.00,VWS V14.01,2013-05-09 01:18:00,
2013-05-08 20:19:00,66.8,51.6,29.98,ENE,58,1.1,3.3,58,0.00,,,0.00,0.00,VWS V14.01,2013-05-09 01:19:00,
2013-05-08 20:24:00,66.5,51.3,29.98,ENE,75,1.1,3.3,58,0.00,,,0.00,0.00,VWS V14.01,2013-05-09 01:24:00,
2013-05-08 20:25:00,66.5,51.3,29.98,ENE,75,0.0,1.1,58,0.00,,,0.00,0.00,VWS V14.01,2013-05-09 01:25:00,
2013-05-08 20:26:00,66.4,51.2,29.98,ENE,75,0.0,3.3,58,0.00,,,0.00,0.00,VWS V14.01,2013-05-09 01:26:00,
2013-05-08 20:30:00,66.2,51.0,29.98,ENE,68,2.2,4.4,58,0.00,,,0.00,0.00,VWS V14.01,2013-05-09 01:30:00,
2013-05-08 20:31:00,66.2,51.0,29.98,ENE,68,0.0,2.2,58,0.00,,,0.00,0.00,VWS V14.01,2013-05-09 01:31:00,
2013-05-08 20:32:00,66.1,51.4,29.98,NE,49,4.4,4.4,59,0.00,,,0.00,0.00,VWS V14.01,2013-05-09 01:32:00,
2013-05-08 20:35:00,65.9,51.2,29.98,NE,49,0.0,4.4,59,0.00,,,0.00,0.00,VWS V14.01,2013-05-09 01:35:00,
2013-05-08 20:37:00,65.8,51.1,29.98,NE,45,0.0,4.4,59,0.00,,,0.00,0.00,VWS V14.01,2013-05-09 01:37:00,
2013-05-08 20:38:00,65.8,51.5,29.98,NE,45,0.0,2.2,60,0.00,,,0.00,0.00,VWS V14.01,2013-05-09 01:38:00,
2013-05-08 20:40:00,65.6,51.4,29.98,NE,45,1.1,1.1,60,0.00,,,0.00,0.00,VWS V14.01,2013-05-09 01:40:00,
2013-05-08 20:43:00,65.3,51.1,29.98,NNE,29,0.0,0.0,60,0.00,,,0.00,0.00,VWS V14.01,2013-05-09 01:43:00,
2013-05-08 20:44:00,65.3,51.1,29.99,NNE,29,3.3,3.3,60,0.00,,,0.00,0.00,VWS V14.01,2013-05-09 01:44:00,
2013-05-08 20:45:00,65.2,51.0,29.99,NNE,29,1.1,3.3,60,0.00,,,0.00,0.00,VWS V14.01,2013-05-09 01:45:00,
2013-05-08 20:48:00,65.1,50.9,29.99,NNE,33,1.1,3.3,60,0.00,,,0.00,0.00,VWS V14.01,2013-05-09 01:48:00,
2013-05-08 20:50:00,64.9,51.2,29.99,NE,37,1.1,2.2,61,0.00,,,0.00,0.00,VWS V14.01,2013-05-09 01:50:00,
2013-05-08 20:53:00,64.7,51.0,29.99,NE,54,1.1,1.1,61,0.00,,,0.00,0.00,VWS V14.01,2013-05-09 01:53:00,
2013-05-08 20:54:00,64.7,51.4,29.99,NE,54,2.2,2.2,62,0.00,,,0.00,0.00,VWS V14.01,2013-05-09 01:54:00,
2013-05-08 20:57:00,64.6,51.3,29.99,ENE,57,3.3,3.3,62,0.00,,,0.00,0.00,VWS V14.01,2013-05-09 01:57:00,
2013-05-08 20:59:00,64.5,51.2,29.99,ENE,57,1.1,2.2,62,0.00,,,0.00,0.00,VWS V14.01,2013-05-09 01:59:00,
2013-05-08 21:00:00,64.4,51.1,29.99,ENE,57,0.0,1.1,62,0.00,,,0.00,0.00,VWS V14.01,2013-05-09 02:00:00,
2013-05-08 21:03:00,64.3,51.5,29.99,NE,50,2.2,3.3,63,0.00,,,0.00,0.00,VWS V14.01,2013-05-09 02:03:00,
2013-05-08 21:04:00,64.2,51.4,29.99,NE,50,2.2,4.4,63,0.00,,,0.00,0.00,VWS V14.01,2013-05-09 02:04:00,
2013-05-08 21:05:00,64.1,51.3,29.99,NE,50,1.1,3.3,63,0.00,,,0.00,0.00,VWS V14.01,2013-05-09 02:05:00,
2013-05-08 21:06:00,64.1,51.3,29.99,NE,50,2.2,2.2,63,0.00,,,0.00,0.00,VWS V14.01,2013-05-09 02:06:00,
2013-05-08 21:09:00,63.9,51.1,29.99,NE,50,2.2,2.2,63,0.00,,,0.00,0.00,VWS V14.01,2013-05-09 02:09:00,
2013-05-08 21:10:00,63.8,51.0,29.99,NE,50,2.2,3.3,63,0.00,,,0.00,0.00,VWS V14.01,2013-05-09 02:10:00,
2013-05-08 21:11:00,63.8,51.0,29.99,NE,50,3.3,3.3,63,0.00,,,0.00,0.00,VWS V14.01,2013-05-09 02:11:00,
2013-05-08 21:12:00,63.8,51.0,29.99,NE,54,2.2,5.5,63,0.00,,,0.00,0.00,VWS V14.01,2013-05-09 02:12:00,
2013-05-08 21:13:00,63.7,50.9,29.99,NE,45,1.1,3.3,63,0.00,,,0.00,0.00,VWS V14.01,2013-05-09 02:13:00,
2013-05-08 21:17:00,63.7,50.9,29.99,NE,45,1.1,4.4,63,0.00,,,0.00,0.00,VWS V14.01,2013-05-09 02:17:00,
2013-05-08 21:19:00,63.7,50.9,29.99,NE,46,1.1,2.2,63,0.00,,,0.00,0.00,VWS V14.01,2013-05-09 02:19:00,
2013-05-08 21:20:00,63.7,50.9,29.99,ENE,58,0.0,3.3,63,0.00,,,0.00,0.00,VWS V14.01,2013-05-09 02:20:00,
2013-05-08 21:22:00,63.6,50.4,29.99,ENE,59,2.2,3.3,62,0.00,,,0.00,0.00,VWS V14.01,2013-05-09 02:22:00,
2013-05-08 21:23:00,63.6,50.4,29.99,ENE,59,1.1,2.2,62,0.00,,,0.00,0.00,VWS V14.01,2013-05-09 02:23:00,
2013-05-08 21:25:00,63.6,50.4,29.99,ENE,60,2.2,3.3,62,0.00,,,0.00,0.00,VWS V14.01,2013-05-09 02:25:00,
2013-05-08 21:26:00,63.6,50.4,29.99,ENE,60,2.2,3.3,62,0.00,,,0.00,0.00,VWS V14.01,2013-05-09 02:26:00,
2013-05-08 21:30:00,63.5,50.3,29.99,ENE,68,2.2,5.5,62,0.00,,,0.00,0.00,VWS V14.01,2013-05-09 02:30:00,
2013-05-08 21:31:00,63.5,50.3,29.99,ENE,68,1.1,3.3,62,0.00,,,0.00,0.00,VWS V14.01,2013-05-09 02:31:00,
2013-05-08 21:33:00,63.5,50.3,29.99,East,81,2.2,3.3,62,0.00,,,0.00,0.00,VWS V14.01,2013-05-09 02:33:00,
2013-05-08 21:35:00,63.5,50.3,29.99,ENE,77,0.0,3.3,62,0.00,,,0.00,0.00,VWS V14.01,2013-05-09 02:35:00,
2013-05-08 21:37:00,63.5,50.3,29.99,NE,43,1.1,4.4,62,0.00,,,0.00,0.00,VWS V14.01,2013-05-09 02:37:00,
2013-05-08 21:39:00,63.4,50.2,29.99,NE,50,3.3,3.3,62,0.00,,,0.00,0.00,VWS V14.01,2013-05-09 02:39:00,
2013-05-08 21:40:00,63.4,50.2,29.99,ENE,57,1.1,3.3,62,0.00,,,0.00,0.00,VWS V14.01,2013-05-09 02:40:00,
2013-05-08 21:41:00,63.4,50.2,29.99,NE,43,2.2,4.4,62,0.00,,,0.00,0.00,VWS V14.01,2013-05-09 02:41:00,
2013-05-08 21:44:00,63.4,50.2,29.99,ENE,59,2.2,2.2,62,0.00,,,0.00,0.00,VWS V14.01,2013-05-09 02:44:00,
2013-05-08 21:45:00,63.3,50.1,29.99,ENE,66,0.0,2.2,62,0.00,,,0.00,0.00,VWS V14.01,2013-05-09 02:45:00,
2013-05-08 21:47:00,63.3,50.1,29.99,ENE,70,3.3,3.3,62,0.00,,,0.00,0.00,VWS V14.01,2013-05-09 02:47:00,
2013-05-08 21:51:00,63.2,50.0,29.99,ENE,73,0.0,1.1,62,0.00,,,0.00,0.00,VWS V14.01,2013-05-09 02:51:00,
2013-05-08 21:52:00,63.2,50.0,29.99,ENE,73,0.0,1.1,62,0.00,,,0.00,0.00,VWS V14.01,2013-05-09 02:52:00,
2013-05-08 21:54:00,63.1,49.9,29.99,ENE,73,0.0,2.2,62,0.00,,,0.00,0.00,VWS V14.01,2013-05-09 02:54:00,
2013-05-08 21:57:00,62.9,50.1,29.99,ENE,73,1.1,3.3,63,0.00,,,0.00,0.00,VWS V14.01,2013-05-09 02:57:00,
2013-05-08 21:58:00,62.8,50.0,29.99,ENE,73,2.2,3.3,63,0.00,,,0.00,0.00,VWS V14.01,2013-05-09 02:58:00,
2013-05-08 21:59:00,62.8,50.0,29.99,ENE,73,0.0,2.2,63,0.00,,,0.00,0.00,VWS V14.01,2013-05-09 02:59:00,
2013-05-08 22:01:00,62.7,49.9,29.99,ENE,73,1.1,3.3,63,0.00,,,0.00,0.00,VWS V14.01,2013-05-09 03:01:00,
2013-05-08 22:03:00,62.7,49.9,29.99,East,80,5.5,5.5,63,0.00,,,0.00,0.00,VWS V14.01,2013-05-09 03:03:00,
2013-05-08 22:04:00,62.7,49.9,29.99,East,81,0.0,5.5,63,0.00,,,0.00,0.00,VWS V14.01,2013-05-09 03:04:00,
2013-05-08 22:05:00,62.7,49.9,29.99,ENE,62,3.3,4.4,63,0.00,,,0.00,0.00,VWS V14.01,2013-05-09 03:05:00,
2013-05-08 22:06:00,62.7,49.9,29.99,ENE,62,1.1,3.3,63,0.00,,,0.00,0.00,VWS V14.01,2013-05-09 03:06:00,
2013-05-08 22:07:00,62.7,49.9,29.99,ENE,61,3.3,3.3,63,0.00,,,0.00,0.00,VWS V14.01,2013-05-09 03:07:00,
2013-05-08 22:09:00,62.6,49.8,29.99,NE,38,1.1,3.3,63,0.00,,,0.00,0.00,VWS V14.01,2013-05-09 03:09:00,
2013-05-08 22:10:00,62.5,50.2,29.99,NE,38,2.2,2.2,64,0.00,,,0.00,0.00,VWS V14.01,2013-05-09 03:10:00,
2013-05-08 22:11:00,62.4,50.1,29.99,NE,38,0.0,2.2,64,0.00,,,0.00,0.00,VWS V14.01,2013-05-09 03:11:00,
2013-05-08 22:15:00,62.1,50.2,29.99,NE,38,0.0,0.0,65,0.00,,,0.00,0.00,VWS V14.01,2013-05-09 03:15:00,
2013-05-08 22:16:00,62.0,50.1,29.99,NE,38,0.0,1.1,65,0.00,,,0.00,0.00,VWS V14.01,2013-05-09 03:16:00,
2013-05-08 22:17:00,62.0,50.1,29.99,NE,38,1.1,1.1,65,0.00,,,0.00,0.00,VWS V14.01,2013-05-09 03:17:00,
2013-05-08 22:19:00,61.9,50.0,29.99,NE,38,0.0,0.0,65,0.00,,,0.00,0.00,VWS V14.01,2013-05-09 03:19:00,
2013-05-08 22:22:00,61.8,49.9,29.99,NE,38,2.2,2.2,65,0.00,,,0.00,0.00,VWS V14.01,2013-05-09 03:22:00,
2013-05-08 22:24:00,61.7,49.8,29.99,NE,38,0.0,2.2,65,0.00,,,0.00,0.00,VWS V14.01,2013-05-09 03:24:00,
2013-05-08 22:30:00,61.0,50.0,29.99,NE,38,0.0,1.1,67,0.00,,,0.00,0.00,VWS V14.01,2013-05-09 03:30:00,
2013-05-08 22:31:00,60.9,49.9,29.99,NE,38,0.0,0.0,67,0.00,,,0.00,0.00,VWS V14.01,2013-05-09 03:31:00,
2013-05-08 22:32:00,60.9,49.9,29.99,NE,38,0.0,0.0,67,0.00,,,0.00,0.00,VWS V14.01,2013-05-09 03:32:00,
2013-05-08 22:35:00,60.6,50.0,29.99,NE,38,0.0,0.0,68,0.00,,,0.00,0.00,VWS V14.01,2013-05-09 03:35:00,
2013-05-08 22:36:00,60.5,49.9,29.99,NE,38,0.0,0.0,68,0.00,,,0.00,0.00,VWS V14.01,2013-05-09 03:36:00,
2013-05-08 22:37:00,60.4,49.8,29.99,NE,38,0.0,1.1,68,0.00,,,0.00,0.00,VWS V14.01,2013-05-09 03:37:00,
2013-05-08 22:38:00,60.3,49.7,29.99,NE,38,2.2,2.2,68,0.00,,,0.00,0.00,VWS V14.01,2013-05-09 03:38:00,
2013-05-08 22:41:00,60.1,49.9,29.99,NE,38,0.0,0.0,69,0.00,,,0.00,0.00,VWS V14.01,2013-05-09 03:41:00,
2013-05-08 22:43:00,60.0,49.8,29.99,NE,38,0.0,3.3,69,0.00,,,0.00,0.00,VWS V14.01,2013-05-09 03:43:00,
2013-05-08 22:44:00,59.9,49.7,29.99,NE,38,0.0,1.1,69,0.00,,,0.00,0.00,VWS V14.01,2013-05-09 03:44:00,
2013-05-08 22:45:00,59.8,49.6,29.99,NE,38,0.0,2.2,69,0.00,,,0.00,0.00,VWS V14.01,2013-05-09 03:45:00,
2013-05-08 22:47:00,59.7,49.5,29.99,NE,38,0.0,2.2,69,0.00,,,0.00,0.00,VWS V14.01,2013-05-09 03:47:00,
2013-05-08 22:49:00,59.6,49.8,29.99,NE,38,0.0,1.1,70,0.00,,,0.00,0.00,VWS V14.01,2013-05-09 03:49:00,
2013-05-08 22:52:00,59.5,49.3,29.99,NE,43,0.0,2.2,69,0.00,,,0.00,0.00,VWS V14.01,2013-05-09 03:52:00,
2013-05-08 22:53:00,59.6,49.8,29.99,NE,43,0.0,1.1,70,0.00,,,0.00,0.00,VWS V14.01,2013-05-09 03:53:00,
2013-05-08 22:54:00,59.6,49.8,29.99,NE,43,0.0,1.1,70,0.00,,,0.00,0.00,VWS V14.01,2013-05-09 03:54:00,
2013-05-08 22:57:00,59.5,49.7,29.99,NE,48,1.1,2.2,70,0.00,,,0.00,0.00,VWS V14.01,2013-05-09 03:57:00,
2013-05-08 22:59:00,59.4,49.6,29.99,NE,48,0.0,0.0,70,0.00,,,0.00,0.00,VWS V14.01,2013-05-09 03:59:00,
2013-05-08 23:01:00,59.3,49.5,29.99,NE,48,0.0,1.1,70,0.00,,,0.00,0.00,VWS V14.01,2013-05-09 04:01:00,
2013-05-08 23:03:00,59.4,49.6,29.99,NE,48,0.0,2.2,70,0.00,,,0.00,0.00,VWS V14.01,2013-05-09 04:03:00,
2013-05-08 23:04:00,59.4,49.6,29.99,NE,48,1.1,1.1,70,0.00,,,0.00,0.00,VWS V14.01,2013-05-09 04:04:00,
2013-05-08 23:05:00,59.3,49.5,29.99,NE,48,0.0,1.1,70,0.00,,,0.00,0.00,VWS V14.01,2013-05-09 04:05:00,
2013-05-08 23:06:00,59.3,49.5,29.99,NE,48,0.0,1.1,70,0.00,,,0.00,0.00,VWS V14.01,2013-05-09 04:06:00,
2013-05-08 23:08:00,59.3,49.5,29.99,NE,48,0.0,1.1,70,0.00,,,0.00,0.00,VWS V14.01,2013-05-09 04:08:00,
2013-05-08 23:09:00,59.3,49.5,29.99,NE,48,1.1,1.1,70,0.00,,,0.00,0.00,VWS V14.01,2013-05-09 04:09:00,
2013-05-08 23:10:00,59.2,49.4,29.99,NE,48,0.0,1.1,70,0.00,,,0.00,0.00,VWS V14.01,2013-05-09 04:10:00,
2013-05-08 23:14:00,59.0,49.6,29.99,NE,48,2.2,2.2,71,0.00,,,0.00,0.00,VWS V14.01,2013-05-09 04:14:00,
2013-05-08 23:15:00,58.9,49.5,29.99,NE,48,1.1,3.3,71,0.00,,,0.00,0.00,VWS V14.01,2013-05-09 04:15:00,
2013-05-08 23:17:00,58.9,49.5,29.99,NE,48,1.1,1.1,71,0.00,,,0.00,0.00,VWS V14.01,2013-05-09 04:17:00,
2013-05-08 23:20:00,58.9,49.2,29.99,ENE,62,1.1,3.3,70,0.00,,,0.00,0.00,VWS V14.01,2013-05-09 04:20:00,
2013-05-08 23:21:00,58.9,49.5,29.99,ENE,62,0.0,1.1,71,0.00,,,0.00,0.00,VWS V14.01,2013-05-09 04:21:00,
2013-05-08 23:23:00,58.9,49.2,29.99,ENE,62,1.1,1.1,70,0.00,,,0.00,0.00,VWS V14.01,2013-05-09 04:23:00,
2013-05-08 23:26:00,58.8,49.4,29.99,ENE,62,1.1,1.1,71,0.00,,,0.00,0.00,VWS V14.01,2013-05-09 04:26:00,
2013-05-08 23:27:00,58.7,49.3,29.99,ENE,62,0.0,1.1,71,0.00,,,0.00,0.00,VWS V14.01,2013-05-09 04:27:00,
2013-05-08 23:29:00,58.7,49.3,29.99,ENE,62,0.0,1.1,71,0.00,,,0.00,0.00,VWS V14.01,2013-05-09 04:29:00,
2013-05-08 23:30:00,58.7,49.3,29.99,ENE,62,1.1,1.1,71,0.00,,,0.00,0.00,VWS V14.01,2013-05-09 04:30:00,
2013-05-08 23:31:00,58.6,49.2,29.99,ENE,62,0.0,2.2,71,0.00,,,0.00,0.00,VWS V14.01,2013-05-09 04:31:00,
2013-05-08 23:32:00,58.6,49.2,29.99,ENE,62,0.0,1.1,71,0.00,,,0.00,0.00,VWS V14.01,2013-05-09 04:32:00,
2013-05-08 23:35:00,58.5,49.1,29.99,ENE,62,0.0,0.0,71,0.00,,,0.00,0.00,VWS V14.01,2013-05-09 04:35:00,
2013-05-08 23:36:00,58.4,49.0,29.98,ENE,62,0.0,0.0,71,0.00,,,0.00,0.00,VWS V14.01,2013-05-09 04:36:00,
2013-05-08 23:37:00,58.4,49.4,29.98,ENE,62,0.0,0.0,72,0.00,,,0.00,0.00,VWS V14.01,2013-05-09 04:37:00,
2013-05-08 23:38:00,58.4,49.4,29.98,ENE,62,0.0,0.0,72,0.00,,,0.00,0.00,VWS V14.01,2013-05-09 04:38:00,
2013-05-08 23:40:00,58.3,49.3,29.98,ENE,62,0.0,1.1,72,0.00,,,0.00,0.00,VWS V14.01,2013-05-09 04:40:00,
2013-05-08 23:43:00,58.3,49.3,29.98,ENE,62,0.0,1.1,72,0.00,,,0.00,0.00,VWS V14.01,2013-05-09 04:43:00,
2013-05-08 23:44:00,58.3,49.3,29.99,ENE,62,0.0,0.0,72,0.00,,,0.00,0.00,VWS V14.01,2013-05-09 04:44:00,
2013-05-08 23:45:00,58.4,49.4,29.99,ENE,62,0.0,0.0,72,0.00,,,0.00,0.00,VWS V14.01,2013-05-09 04:45:00,
2013-05-08 23:46:00,58.4,49.4,29.99,ENE,62,0.0,0.0,72,0.00,,,0.00,0.00,VWS V14.01,2013-05-09 04:46:00,
2013-05-08 23:49:00,58.3,49.3,29.98,ENE,62,1.1,1.1,72,0.00,,,0.00,0.00,VWS V14.01,2013-05-09 04:49:00,
2013-05-08 23:50:00,58.3,49.3,29.99,ENE,62,0.0,1.1,72,0.00,,,0.00,0.00,VWS V14.01,2013-05-09 04:50:00,
2013-05-08 23:53:00,58.1,49.1,29.98,ENE,62,0.0,0.0,72,0.00,,,0.00,0.00,VWS V14.01,2013-05-09 04:53:00,
2013-05-08 23:54:00,58.0,49.0,29.98,ENE,62,0.0,0.0,72,0.00,,,0.00,0.00,VWS V14.01,2013-05-09 04:54:00,
2013-05-08 23:57:00,57.9,49.3,29.98,ENE,62,0.0,0.0,73,0.00,,,0.00,0.00,VWS V14.01,2013-05-09 04:57:00,